GFSMW_sfc_dewp_000.txt.gz
Dewpoint
44 46 49 51 50 52 49 53 55 55 52 52 50 49 49 49 50 48 49 48 50 50 51 50 50 50 49 50 50 49 48 48 50 49 48 47 48 51 49 46 43 43 42
39 42 46 50 54 52 53 53 51 49 47 46 49 49 49 48 48 49 49 49 49 48 44 48 47 48 47 48 49 50 47 45 46 45 44 41 41 45 46 46 47 45 43
38 41 45 49 51 50 50 46 45 46 48 48 45 46 46 46 45 45 46 46 46 45 46 46 47 48 46 45 46 46 45 44 43 44 43 39 38 40 42 43 44 48 50
35 38 43 46 48 49 49 46 46 44 45 46 46 45 44 44 47 49 47 47 46 46 43 44 46 46 46 45 46 42 46 44 42 43 43 42 41 41 40 42 43 44 47
39 40 42 44 45 49 50 49 46 44 44 45 45 46 48 48 47 47 46 45 45 44 43 42 43 45 44 44 45 44 44 45 43 42 40 39 38 39 38 36 37 39 42
39 39 42 44 45 49 49 48 45 42 44 45 47 46 45 44 43 43 43 41 41 41 42 42 43 44 44 43 43 45 43 42 42 41 40 39 38 36 35 34 35 36 38
41 40 40 41 43 46 47 46 45 43 44 44 43 43 44 44 43 42 40 39 39 40 39 42 42 42 42 42 42 43 43 41 40 39 39 39 38 37 36 35 34 34 35
41 41 41 43 43 45 46 47 45 43 43 45 43 45 44 42 41 41 39 39 40 40 40 41 41 41 40 40 40 40 41 40 41 39 39 38 38 38 38 37 36 33 34
38 39 41 43 43 44 45 46 45 44 44 45 46 43 42 43 41 39 40 40 40 37 40 41 39 39 40 40 39 39 38 38 39 39 39 37 37 38 38 37 37 35 32
37 40 39 43 43 44 46 48 46 43 43 41 41 39 40 41 40 40 39 40 40 38 38 39 39 39 39 38 37 37 38 37 38 38 37 37 36 35 36 36 36 36 34
37 39 39 40 41 43 43 45 43 42 41 40 39 41 40 40 39 39 39 39 38 37 36 37 36 36 36 38 39 37 36 34 33 35 35 34 34 34 33 32 29 28 29
38 38 40 40 40 41 41 41 43 42 41 40 40 38 39 37 37 38 36 36 36 37 35 35 34 35 35 37 37 36 36 34 33 32 32 31 29 29 29 28 27 27 27
37 38 39 39 38 38 39 39 41 41 41 39 38 36 36 35 35 34 35 35 35 34 32 29 28 26 27 26 27 27 28 27 25 25 25 26 27 26 26 27 26 26 23
39 39 39 38 36 36 36 36 36 41 41 39 37 37 36 34 32 33 32 32 31 29 27 27 27 28 25 23 26 25 26 25 23 25 23 23 24 26 27 26 26 24 23
38 38 38 37 34 34 33 32 33 36 39 39 37 38 35 33 32 33 31 31 30 26 26 25 26 27 24 23 26 24 23 23 22 22 21 22 26 30 28 22 23 23 22
36 35 35 32 31 30 27 26 28 30 37 34 36 35 35 34 33 32 32 29 27 25 25 26 26 26 20 26 25 25 22 21 21 20 20 21 25 25 29 30 29 27 22
35 34 32 29 27 24 24 23 24 26 32 32 33 35 38 35 35 31 28 25 25 26 27 27 26 26 26 25 25 24 21 20 19 19 20 20 19 25 23 27 27 27 29
34 31 27 26 25 24 22 23 21 23 25 26 30 35 36 34 32 30 29 26 25 26 26 27 26 25 23 29 27 24 22 20 20 20 20 20 21 24 24 23 23 23 23
30 25 24 24 23 20 21 21 22 22 23 23 30 31 36 30 31 29 29 26 25 25 26 26 27 26 25 28 29 27 23 23 21 21 22 23 22 24 25 24 24 24 23
23 21 21 19 18 20 20 20 20 21 24 32 32 30 28 30 30 30 28 25 25 24 27 27 27 28 26 29 27 26 24 21 21 23 23 23 24 27 27 27 27 25 25
21 21 18 18 19 19 20 21 20 20 28 30 32 33 32 28 28 28 24 24 24 25 29 29 28 27 27 26 26 26 24 23 23 21 21 23 29 27 24 23 24 23 23
18 16 17 18 19 19 21 21 21 25 30 32 31 31 29 27 22 24 25 24 24 27 27 25 26 26 26 25 24 24 21 22 23 22 25 25 25 24 24 24 25 25 24
16 17 17 19 20 21 21 21 24 27 28 30 28 28 26 24 24 23 23 23 24 26 25 22 21 21 23 22 22 20 20 21 23 23 24 25 25 24 25 26 24 25 24
17 18 19 19 21 22 22 25 27 28 28 27 27 26 25 26 25 23 22 23 26 25 24 21 20 19 19 19 19 20 21 21 21 21 22 25 23 23 24 25 24 25 26
20 20 20 20 23 23 25 27 27 29 26 27 27 27 29 28 26 23 24 27 24 23 22 21 20 17 16 18 18 19 21 21 22 21 22 20 19 20 22 21 22 23 23
19 19 21 23 23 25 27 29 28 29 30 29 28 29 29 29 26 24 24 25 24 21 19 18 18 18 18 18 17 18 19 21 21 21 19 18 18 18 20 20 20 21 22

GFSMW_sfc_dewp_003.txt.gz
Dewpoint
44 48 48 48 49 52 50 51 52 47 47 48 47 46 43 43 43 43 46 45 44 44 44 45 47 46 46 45 45 47 46 45 47 45 43 45 47 46 47 50 49 46 46
44 45 46 45 48 45 44 46 47 46 46 47 46 45 43 43 43 43 43 45 46 44 43 45 46 45 44 43 43 43 44 43 45 43 42 40 41 43 44 45 48 48 50
42 44 44 45 44 43 42 41 41 42 44 44 41 41 41 42 43 45 45 45 47 44 43 43 44 43 44 43 42 44 41 42 43 43 43 41 39 40 43 42 40 42 45
43 43 44 44 44 44 42 41 41 39 40 42 41 41 43 44 46 45 44 45 43 42 42 41 41 43 43 42 43 43 43 43 42 43 42 42 40 37 36 38 38 37 39
40 42 43 44 44 43 42 41 40 40 40 39 39 43 42 43 43 43 41 39 40 40 40 41 40 42 43 41 42 43 42 42 42 41 41 39 38 39 37 32 35 36 37
39 41 43 43 43 42 41 39 37 38 39 39 39 41 39 39 41 39 37 37 38 39 38 39 40 41 40 40 41 42 41 40 41 41 41 40 38 36 35 33 33 34 35
39 39 41 41 41 41 41 40 41 39 39 40 39 38 39 38 37 36 35 35 37 37 37 39 39 39 39 39 39 39 39 39 38 38 37 38 37 37 37 36 32 33 34
38 38 39 39 40 40 39 41 40 40 40 39 40 39 39 39 38 36 35 36 37 37 39 38 38 38 38 38 38 38 38 39 38 38 38 38 38 37 37 36 34 33 34
37 37 39 40 41 41 43 43 42 41 37 38 38 39 40 40 39 36 35 37 39 37 39 39 38 38 38 38 37 36 37 37 37 37 37 38 37 36 36 37 38 36 31
38 39 39 41 41 41 43 42 41 40 38 37 41 42 41 41 41 38 38 37 37 37 37 36 36 35 35 36 37 37 36 36 35 35 36 36 37 39 39 38 37 35 33
38 39 39 39 41 40 40 41 41 40 38 38 39 39 38 37 38 37 35 35 35 35 35 34 34 34 34 35 36 36 36 35 34 35 35 34 34 34 37 37 35 34 33
37 38 39 38 37 37 36 36 38 39 38 38 39 37 37 35 36 34 33 33 33 33 33 32 29 29 28 29 32 34 35 33 30 28 27 27 24 26 28 30 30 28 28
39 39 39 37 35 34 35 35 35 38 38 38 38 37 37 34 31 30 31 30 30 30 28 27 27 26 27 26 26 27 27 26 25 25 24 23 23 22 24 26 27 27 24
38 38 37 36 34 32 32 30 30 31 36 40 39 40 41 36 30 32 31 30 28 26 24 23 25 27 26 26 25 24 24 23 23 24 23 22 22 22 25 25 26 25 22
36 36 35 33 31 27 24 23 26 28 27 33 36 39 38 36 37 36 33 32 29 25 22 22 24 25 24 23 24 22 22 21 21 22 21 21 23 26 28 25 25 23 21
35 34 34 30 25 22 22 24 24 24 25 24 25 30 39 39 38 36 35 32 26 21 21 23 25 24 22 26 25 23 20 20 20 19 19 21 23 25 27 30 29 28 23
35 34 32 25 24 23 24 23 23 25 25 25 27 37 37 37 38 38 35 25 23 21 22 24 25 24 23 25 24 24 21 20 19 19 20 19 18 23 24 25 26 25 26
34 33 26 23 22 21 21 22 21 23 25 27 31 33 35 36 38 37 29 25 22 20 22 24 25 25 24 28 27 24 22 22 22 22 21 21 23 26 23 22 22 23 24
30 24 22 21 19 19 20 21 22 23 24 31 31 31 33 34 33 32 29 27 22 21 23 26 25 25 25 29 28 28 24 24 23 23 22 21 20 23 26 25 25 25 24
23 21 19 17 18 19 20 22 22 23 28 32 32 33 34 33 34 34 29 25 21 22 26 26 26 28 26 29 27 28 23 21 22 22 21 22 23 29 28 25 23 21 20
21 21 19 18 18 19 21 23 24 24 30 32 33 33 33 33 32 31 23 21 21 26 25 26 25 25 26 24 26 23 22 21 22 20 21 23 23 25 25 25 24 23 23
19 18 19 20 21 21 23 23 23 25 29 30 31 31 31 30 25 22 22 22 23 23 23 18 19 22 23 23 22 21 19 20 21 21 22 23 27 23 23 25 27 23 24
18 19 19 21 22 23 23 23 26 28 29 29 28 28 27 25 24 24 22 22 23 21 21 22 15 19 21 19 20 20 21 21 21 22 23 25 22 23 24 25 25 24 25
19 19 20 20 23 24 23 27 28 28 28 28 28 27 26 27 26 24 23 23 20 19 23 20 18 16 17 16 17 19 19 22 22 21 22 23 22 22 24 23 23 23 23
19 20 22 24 24 25 26 27 27 27 27 28 28 27 27 27 26 23 23 25 21 21 19 17 18 6 5 14 19 18 19 20 23 21 19 19 18 18 20 20 20 21 22
24 24 25 25 25 28 29 30 30 27 28 28 27 26 26 25 26 25 25 27 25 23 22 21 16 11 17 19 20 18 18 20 20 19 18 16 16 16 16 17 18 19 20

GFSMW_sfc_dewp_006.txt.gz
Dewpoint
43 46 48 47 48 47 48 49 49 50 45 48 49 49 43 43 43 43 46 46 46 46 45 45 46 45 44 43 42 43 43 42 43 41 39 41 41 43 44 46 45 46 44
42 43 45 46 46 44 48 49 46 46 46 49 48 46 44 43 44 48 45 46 45 44 42 43 42 44 43 42 42 43 42 42 42 41 41 34 36 38 41 43 42 43 44
42 43 44 43 42 41 42 41 41 42 45 44 43 43 43 44 45 44 43 42 41 42 41 41 41 42 42 41 41 42 42 41 42 43 41 38 36 39 40 39 36 38 40
43 43 43 42 42 41 40 39 39 39 40 41 41 43 43 42 44 44 41 38 39 40 39 40 41 42 42 40 41 43 42 41 40 41 41 40 39 36 35 36 35 36 36
43 43 43 42 42 41 41 40 40 39 39 39 40 43 41 41 42 40 37 36 38 39 38 40 41 40 41 40 40 41 40 41 40 40 40 39 38 39 35 31 32 34 36
42 43 43 42 41 41 40 38 37 38 40 39 39 42 39 39 38 35 34 35 37 37 39 39 38 38 39 39 39 38 39 38 38 38 38 38 36 35 35 33 34 32 33
41 42 42 41 41 43 40 40 40 39 39 40 39 39 38 36 34 34 35 34 37 37 38 38 38 38 38 38 37 37 37 38 37 37 37 38 37 37 36 35 35 33 33
40 41 41 40 40 41 42 42 39 37 39 39 38 39 38 39 37 37 35 38 39 38 39 38 37 37 37 37 36 36 36 36 36 35 35 36 36 36 36 36 35 32 32
37 39 40 40 41 41 41 40 38 36 37 38 39 39 40 40 40 41 39 39 38 38 37 37 35 35 35 35 36 35 34 34 34 34 34 35 36 36 37 38 36 33 28
38 39 39 40 40 41 41 41 41 37 37 38 40 41 40 40 41 38 37 36 35 36 35 33 33 33 34 34 35 34 34 34 34 34 34 34 35 35 35 36 36 35 33
38 39 39 39 38 36 36 37 38 39 38 38 38 38 37 37 38 36 36 35 35 36 34 32 31 29 29 30 31 32 33 34 32 30 28 27 27 27 28 29 30 33 34
38 38 37 36 35 34 34 32 35 37 37 38 39 39 38 36 36 35 34 34 33 34 32 32 28 27 26 26 27 29 28 26 25 25 25 24 21 22 23 24 24 26 26
37 37 36 34 33 31 28 26 27 28 30 31 36 39 39 39 34 33 33 31 30 30 29 27 25 25 26 25 26 26 25 23 23 23 23 23 22 20 21 22 24 25 24
36 35 34 33 29 25 23 23 25 27 27 26 29 30 32 37 34 32 34 36 37 37 30 24 25 27 25 26 24 23 22 22 21 23 23 22 21 20 22 23 24 24 24
35 34 34 30 23 23 23 23 25 26 27 27 27 32 38 36 35 36 37 37 38 36 27 24 24 25 25 23 23 22 21 21 21 22 21 20 21 22 23 25 30 27 25
34 34 32 26 23 22 21 22 23 25 27 26 31 36 37 37 37 36 36 37 37 26 23 23 25 25 22 27 26 23 21 20 19 19 20 20 21 22 24 25 26 25 25
33 32 31 23 22 21 21 20 21 24 26 27 32 33 37 36 37 37 37 37 30 27 23 23 24 24 24 28 27 26 22 21 20 21 21 20 18 23 24 25 25 24 25
32 31 22 20 20 19 19 21 21 23 25 31 31 32 33 34 34 35 34 34 28 25 22 24 25 24 24 28 29 27 25 23 23 23 22 21 21 21 21 21 25 25 25
27 24 21 20 19 18 19 21 22 23 24 30 31 32 33 33 32 33 33 34 28 21 25 25 25 25 27 29 28 27 24 23 22 22 21 21 21 24 26 26 23 22 21
24 21 19 18 18 18 19 21 22 24 25 31 31 32 33 33 33 33 32 30 21 25 25 25 25 26 24 26 23 23 21 17 20 21 20 21 21 23 26 26 24 21 20
21 21 19 18 19 20 22 23 23 24 26 30 31 32 32 31 31 31 25 21 25 25 25 23 24 24 23 23 21 20 20 19 21 19 19 21 24 24 22 23 24 24 25
19 19 20 20 22 22 23 22 23 25 28 29 29 28 28 27 24 24 23 24 24 23 21 15 17 20 21 19 19 19 19 20 16 20 21 23 22 23 24 24 25 24 24
18 19 19 21 23 24 24 22 25 28 28 28 28 27 27 27 26 23 21 22 22 20 20 21 14 18 20 17 20 20 20 21 20 21 22 20 21 22 23 22 24 24 22
18 19 22 23 25 25 25 26 28 28 28 27 27 27 27 27 26 23 23 22 19 18 22 20 17 15 16 14 17 18 15 20 22 21 21 21 21 20 21 21 22 22 22
22 23 25 26 26 27 29 29 30 30 27 28 28 27 26 26 26 22 23 24 21 21 19 18 17 4 4 13 20 20 17 18 19 15 16 17 16 16 16 16 18 20 21
25 25 26 27 27 28 27 29 31 31 30 28 28 27 25 23 25 25 24 27 26 25 25 23 16 10 18 20 22 19 18 16 17 13 12 10 11 14 15 13 14 16 18

GFSMW_sfc_dewp_009.txt.gz
Dewpoint
45 46 47 48 48 50 52 52 53 54 51 49 50 50 45 45 46 46 48 46 44 43 42 42 43 43 41 41 42 42 41 40 42 40 39 39 36 39 43 44 43 42 41
42 43 44 45 47 48 50 49 48 48 49 50 49 48 47 45 48 46 43 42 42 41 39 40 41 41 41 40 40 41 41 41 42 41 41 36 36 40 40 40 39 39 41
43 43 42 40 41 42 43 41 42 43 46 48 46 43 43 45 43 42 40 39 40 39 40 40 41 41 41 40 41 41 41 40 41 41 40 36 35 37 38 36 36 37 37
42 41 40 39 39 39 39 38 39 39 40 41 40 40 41 41 43 41 37 36 39 38 40 40 41 41 41 40 41 41 39 39 38 40 40 39 37 34 32 34 33 35 34
41 41 41 40 40 39 39 39 39 39 39 39 40 42 41 40 41 37 35 35 38 39 40 39 39 40 40 38 38 38 37 37 37 37 37 37 37 36 34 32 31 33 34
42 42 42 41 41 41 39 38 38 39 40 40 40 41 38 38 34 34 35 35 37 39 39 39 39 39 38 37 37 36 35 35 36 36 36 36 36 36 36 34 31 32 33
42 43 41 41 41 41 41 41 40 39 39 39 38 38 35 34 34 36 38 36 38 40 38 38 38 38 37 36 36 35 34 34 33 33 34 35 34 36 36 34 32 33 32
41 40 40 41 40 39 36 35 36 36 37 37 37 37 36 38 39 39 39 39 39 39 38 37 36 36 36 35 35 34 34 33 32 31 32 33 33 34 34 34 32 28 29
39 39 40 40 40 40 40 38 36 36 37 38 39 39 39 39 40 40 40 38 38 38 38 37 37 38 35 34 34 33 32 32 32 32 32 32 33 32 33 33 33 32 26
38 39 39 38 37 37 39 39 39 37 37 38 39 39 40 39 39 40 38 36 35 37 36 38 38 33 32 32 33 32 32 33 32 33 31 28 30 28 29 28 30 31 30
38 38 38 36 35 34 34 35 36 35 33 34 36 38 38 38 38 37 36 35 34 36 37 36 32 30 29 29 29 28 30 32 30 26 25 25 25 25 25 26 25 25 26
37 36 35 34 33 30 27 28 28 27 29 31 33 34 35 35 36 36 34 35 35 33 33 35 35 30 27 27 27 27 29 26 24 23 23 23 19 21 22 22 21 22 23
36 36 34 32 28 25 25 24 25 24 25 25 27 29 32 35 37 36 32 32 33 35 36 36 31 27 26 26 26 27 25 22 22 23 22 22 21 20 19 20 21 23 23
35 34 33 29 25 23 23 23 24 25 25 25 27 32 35 36 32 31 32 33 35 36 36 36 29 27 26 25 25 23 22 22 22 23 23 22 21 20 20 20 26 28 28
34 33 32 27 22 22 22 22 23 24 25 25 28 33 36 36 35 34 35 35 36 36 36 30 25 26 25 24 22 22 22 22 21 22 21 21 22 23 21 20 22 23 26
33 33 32 26 23 21 20 21 22 23 26 25 30 32 33 35 36 36 36 37 37 37 25 30 26 25 23 28 27 25 22 21 21 21 21 21 23 22 22 23 24 23 25
32 32 32 23 23 21 21 20 21 23 25 25 31 32 33 34 34 35 36 35 34 30 29 23 23 23 23 28 28 30 25 25 23 23 23 21 18 21 21 23 23 23 25
32 32 28 22 22 20 20 21 21 23 24 26 31 31 32 32 32 33 34 33 34 32 23 24 25 24 26 29 29 29 25 24 23 21 20 21 20 23 21 25 24 25 22
32 28 23 20 19 19 19 20 21 22 24 25 30 31 32 32 32 32 32 32 31 26 24 25 26 25 26 26 25 23 22 21 20 20 20 20 20 22 26 26 24 23 22
24 23 20 18 17 18 20 20 22 23 24 26 30 31 31 32 31 30 30 30 21 25 25 25 25 23 22 24 21 21 20 15 19 20 19 21 21 24 23 23 23 21 20
20 21 19 19 20 21 22 23 23 24 25 28 29 29 29 27 27 25 24 21 25 25 24 25 23 22 22 21 20 20 18 18 21 19 19 21 23 23 24 24 24 24 24
18 19 20 21 23 23 24 23 23 24 26 28 29 28 27 26 26 25 23 24 24 22 21 15 17 20 20 19 19 20 19 20 17 20 21 22 20 21 23 22 24 24 23
18 20 21 23 24 25 25 24 25 27 28 28 28 27 27 27 26 23 22 22 21 19 20 21 14 18 20 17 20 21 20 21 17 20 21 19 18 19 20 20 22 22 21
20 21 23 23 25 26 27 29 29 29 29 29 28 28 27 27 26 23 23 22 20 19 22 20 18 15 16 14 16 18 13 19 18 17 16 18 19 18 17 17 18 20 20
22 23 24 25 26 27 29 28 28 30 29 28 29 28 28 26 24 22 23 24 22 23 21 18 17 5 3 12 19 20 15 10 15 8 6 12 14 14 15 14 14 16 17
23 23 25 26 27 29 28 28 29 30 30 31 30 30 31 26 25 24 23 26 27 27 27 26 17 10 18 21 21 20 18 16 16 9 3 -2 3 10 14 12 11 12 13

GFSMW_sfc_dewp_012.txt.gz
Dewpoint
45 49 50 52 52 53 55 54 54 53 52 49 51 48 48 49 48 45 43 43 42 41 40 41 41 41 40 40 41 41 40 40 42 40 37 40 37 41 43 42 40 40 41
43 44 46 48 49 50 53 53 50 48 49 49 49 50 47 46 45 41 40 41 40 39 39 41 41 40 40 40 41 40 40 40 42 40 39 35 36 39 38 40 39 38 40
43 42 42 42 47 47 45 44 44 44 46 48 45 43 44 45 42 41 37 38 39 39 40 41 41 40 39 40 40 40 39 38 39 40 39 35 32 36 37 36 37 36 36
40 39 38 37 38 38 39 39 40 39 40 40 40 39 40 41 42 38 35 37 39 39 39 39 40 39 40 41 40 39 38 39 36 38 38 37 37 34 31 34 34 35 35
40 39 38 38 39 39 39 39 39 40 39 39 41 42 40 41 37 35 35 35 37 38 38 38 38 39 39 37 37 36 35 36 35 35 35 35 36 36 35 30 30 33 34
41 40 41 41 40 40 39 39 40 39 40 40 40 39 39 35 34 36 37 36 37 38 38 39 38 38 37 37 36 35 34 34 34 35 34 35 33 32 32 31 30 30 31
41 41 41 41 41 40 40 39 37 37 37 37 36 36 35 34 36 37 38 37 39 39 39 37 37 37 36 37 36 33 33 32 31 31 32 34 33 34 34 32 28 29 27
43 41 40 38 37 36 35 36 36 36 37 37 37 37 36 37 38 39 39 39 39 39 37 37 35 35 36 37 37 35 33 33 31 30 30 31 32 33 33 32 30 25 26
39 40 39 39 39 39 38 36 36 37 37 38 38 39 39 39 39 40 40 39 38 38 37 36 37 37 38 36 35 33 31 32 32 32 32 32 32 31 29 31 29 28 22
39 39 37 37 37 37 38 39 37 33 31 31 35 35 34 35 36 37 37 37 37 36 37 37 37 37 36 34 34 33 31 31 31 32 31 27 28 27 28 26 27 27 24
38 36 35 35 34 33 33 31 28 26 27 29 31 31 32 33 35 36 36 35 34 35 36 36 34 31 32 31 29 28 28 28 30 27 25 24 24 24 25 24 23 22 23
36 35 34 33 27 26 26 26 25 25 27 27 29 30 32 33 34 35 35 34 34 34 33 34 35 35 32 28 26 26 26 28 25 24 23 23 20 21 21 21 19 20 21
36 35 33 31 26 24 25 25 25 23 24 24 25 29 32 33 33 32 32 32 32 32 35 36 36 33 29 25 26 25 26 23 22 23 23 22 22 20 20 19 20 21 22
35 34 32 28 24 24 25 24 23 24 24 23 25 29 31 34 34 33 32 32 33 35 37 36 35 29 25 25 25 24 22 22 23 24 23 23 22 21 20 21 20 21 22
34 33 32 27 23 24 24 23 23 24 25 24 25 29 32 33 34 35 35 35 35 36 37 33 26 25 25 24 23 22 22 22 22 23 23 22 24 26 23 19 20 21 22
33 33 32 28 24 23 22 21 22 23 25 25 25 30 32 32 33 34 34 34 35 34 34 28 27 25 23 28 28 27 26 24 24 24 23 23 22 22 22 22 23 22 21
32 32 32 30 25 23 22 20 21 23 24 25 26 30 32 32 32 32 33 33 33 32 31 27 23 23 24 29 29 30 26 24 23 22 19 18 17 21 21 23 23 24 26
31 31 32 30 23 22 20 21 21 22 23 25 26 30 31 31 31 32 32 31 32 31 29 24 24 25 28 28 28 27 22 21 21 20 19 19 19 21 20 23 25 22 23
33 32 29 24 20 20 19 19 21 22 23 24 25 28 31 30 31 31 30 29 29 27 25 25 25 26 23 25 23 22 22 21 20 19 19 19 20 22 25 23 23 21 20
30 24 21 18 18 18 20 21 22 23 24 25 26 29 30 29 28 27 27 28 22 23 25 25 24 22 22 22 20 21 20 16 19 21 20 21 20 22 23 25 22 21 20
19 20 19 19 21 22 23 22 23 24 25 26 28 28 28 28 26 26 25 23 23 25 23 24 23 22 22 20 19 20 18 18 21 20 19 21 22 20 20 21 22 23 23
18 19 20 21 23 23 24 25 25 26 27 28 28 28 28 27 26 26 23 24 24 22 21 16 18 20 20 19 20 20 20 19 14 19 20 20 20 18 18 18 21 22 21
18 20 21 22 23 25 26 26 27 28 28 29 29 28 28 27 27 25 22 22 21 18 19 21 16 18 20 18 20 21 20 19 15 18 18 18 17 18 18 17 18 20 19
20 21 22 22 24 26 27 28 28 28 29 29 28 28 27 27 27 24 22 21 19 18 21 20 19 15 16 15 16 17 15 17 17 14 13 14 18 14 16 16 16 16 18
22 22 23 24 25 26 28 28 28 28 29 30 30 29 28 29 27 22 23 23 22 22 20 20 18 9 5 13 17 19 14 9 14 7 4 8 10 12 14 14 13 13 13
23 22 24 26 26 27 28 28 28 28 28 30 30 29 29 31 27 24 24 26 27 27 28 27 19 13 19 21 22 23 19 17 16 8 2 -4 -5 4 12 12 12 11 9

GFSMW_sfc_dewp_015.txt.gz
Dewpoint
50 53 56 58 58 58 58 58 58 55 53 49 52 52 52 49 45 43 44 43 43 43 44 43 43 43 42 43 42 40 38 35 40 34 30 31 40 42 39 39 38 38 36
49 51 53 55 57 57 56 56 55 51 50 52 52 52 50 47 42 41 42 41 43 42 41 44 42 43 41 43 43 40 36 37 41 33 30 25 26 33 37 35 36 37 37
49 50 51 54 56 56 53 49 49 49 49 49 47 46 48 46 43 40 38 40 41 41 42 43 44 43 42 41 42 41 40 35 37 42 33 27 24 31 31 33 33 37 35
46 46 45 46 46 46 46 46 45 43 43 44 44 45 43 43 42 39 39 39 41 41 40 41 43 43 42 42 41 39 38 35 30 30 35 34 33 26 24 27 30 32 30
42 39 39 40 40 42 44 44 44 43 43 44 46 44 44 41 39 40 41 41 42 41 40 41 42 42 41 41 40 37 34 32 28 28 28 28 27 28 29 21 22 25 26
41 40 41 41 41 42 44 44 41 41 42 43 44 44 42 40 39 41 41 41 41 42 42 41 42 41 40 38 37 37 33 33 31 29 28 24 23 22 25 25 22 21 21
42 41 41 41 42 43 42 40 39 38 40 40 40 40 40 40 41 41 41 42 41 41 42 42 41 38 37 37 36 33 32 32 29 28 25 28 27 28 27 25 21 23 21
43 42 42 40 39 40 39 39 39 39 40 41 41 42 42 40 37 37 36 37 38 39 42 41 39 38 37 35 35 34 34 34 33 32 32 30 30 33 33 30 28 25 21
42 41 40 39 39 38 40 40 37 34 34 36 35 35 34 34 34 36 37 36 39 39 41 40 38 40 38 36 36 35 35 34 33 34 34 32 31 33 31 29 28 26 23
41 40 39 40 40 40 41 38 32 28 30 30 32 30 32 33 33 34 33 34 37 39 40 39 39 38 37 35 35 33 33 33 32 30 32 32 29 28 29 27 27 26 24
41 39 37 37 37 39 34 30 29 26 27 28 30 32 32 33 33 32 33 34 37 38 38 38 38 36 34 35 35 33 31 30 29 31 30 28 27 24 24 24 21 19 18
39 36 35 34 33 30 27 29 27 26 27 28 29 30 31 32 33 33 34 36 35 36 36 36 35 35 37 36 33 29 27 28 28 27 26 25 22 24 23 22 21 19 19
36 35 34 28 25 26 27 26 26 25 25 25 25 28 30 32 33 33 34 35 35 35 35 34 36 36 36 33 28 27 27 27 26 25 25 25 24 23 23 21 20 20 18
35 34 33 29 25 26 26 27 30 27 25 24 24 28 31 33 34 34 34 35 36 37 37 37 37 35 29 26 26 26 25 24 24 26 25 25 24 23 21 21 23 20 21
35 34 33 29 25 26 28 30 27 26 26 26 25 28 31 34 34 34 34 35 36 36 38 37 32 31 27 23 26 24 24 25 25 25 22 22 23 24 22 19 20 20 19
35 34 33 30 26 25 29 27 25 25 26 26 27 28 30 32 34 34 34 34 34 34 35 32 32 30 23 30 30 29 26 25 21 18 18 17 18 18 21 21 22 22 21
35 34 34 33 28 28 28 25 24 24 25 26 26 28 30 31 33 32 31 31 32 33 34 34 28 26 28 30 29 28 21 19 18 17 15 14 14 19 17 19 21 24 25
35 34 34 34 33 27 25 25 21 22 24 25 26 27 28 30 32 31 30 30 31 33 34 30 26 27 25 27 25 23 21 18 17 16 16 16 17 17 19 23 21 18 17
35 33 33 32 25 23 22 21 22 23 24 24 25 26 28 30 30 29 29 29 29 28 26 26 26 25 23 24 21 21 21 20 18 17 17 18 17 20 24 21 20 16 15
34 31 25 21 21 21 23 24 22 23 25 27 27 28 30 30 29 29 28 28 28 24 25 26 25 21 23 21 20 20 23 23 20 19 17 19 20 21 20 20 20 18 18
22 22 21 21 22 24 24 22 24 25 27 27 28 28 29 29 29 29 28 27 25 26 28 26 25 22 22 21 19 20 24 22 20 17 16 18 20 19 18 18 19 21 21
20 21 22 23 24 24 24 23 24 27 27 28 29 30 29 29 27 28 28 25 26 26 27 28 26 24 24 19 20 21 21 20 22 19 17 20 18 17 17 16 18 18 20
19 21 21 22 23 24 25 25 27 28 28 29 30 30 30 29 28 28 27 25 24 25 25 23 26 24 25 23 20 21 22 21 21 21 18 17 17 16 14 15 16 16 18
19 21 20 20 22 25 26 28 29 28 29 29 30 31 29 29 29 28 24 23 25 25 24 26 25 25 24 25 23 22 25 21 20 19 17 17 16 15 15 15 15 16 15
26 21 21 23 23 26 27 29 28 29 29 29 27 27 29 27 28 30 25 24 24 25 26 25 26 28 28 26 24 23 25 24 20 18 18 16 15 14 12 14 13 13 12
23 21 23 24 25 27 28 28 28 29 30 29 30 31 31 29 30 30 27 27 28 28 28 28 28 30 26 23 22 23 23 19 17 17 17 17 16 15 12 13 13 13 10

GFSMW_sfc_dewp_021.txt.gz
Dewpoint
48 51 53 53 53 57 59 61 61 61 60 58 57 56 52 51 49 47 47 47 46 45 46 44 45 46 45 46 46 44 44 37 37 35 35 35 38 38 33 32 34 36 33
48 51 54 55 56 57 59 60 59 60 58 55 53 52 51 48 46 46 47 45 45 44 43 46 45 45 43 43 42 42 40 37 37 35 34 30 28 30 31 31 31 37 31
48 51 54 56 57 58 58 58 57 57 54 53 51 50 49 47 44 44 43 44 45 44 44 44 44 43 41 37 40 40 40 35 35 36 32 28 26 28 29 30 29 36 30
48 51 54 56 57 58 58 55 54 52 52 49 46 46 44 44 45 44 44 44 44 44 42 41 42 42 40 40 39 35 39 37 33 34 31 34 33 27 24 23 24 26 24
49 51 53 53 53 53 52 52 50 46 46 47 48 46 46 44 43 43 40 39 37 34 32 33 36 41 40 40 41 40 39 36 36 33 33 30 27 27 22 19 19 20 21
49 46 47 48 48 49 49 48 45 44 46 46 47 46 43 40 37 35 31 29 28 28 30 29 34 36 39 40 39 40 39 39 37 32 30 27 23 21 22 20 22 22 21
44 42 42 42 44 46 47 46 44 44 45 43 40 40 39 34 32 29 27 28 27 27 30 33 35 35 36 38 38 39 39 40 34 32 29 27 26 26 24 22 22 21 22
41 40 40 41 43 45 45 44 43 42 40 39 36 33 32 32 29 29 30 28 28 28 31 32 35 37 37 37 41 38 41 39 36 33 31 30 28 27 26 24 25 24 22
39 39 40 42 44 45 45 45 42 38 35 35 37 35 35 31 32 32 32 29 30 26 30 33 33 35 36 38 41 41 40 36 35 37 34 31 29 29 28 26 24 26 27
39 40 41 44 44 44 46 45 40 35 36 36 35 35 34 31 33 33 31 30 30 30 31 31 31 32 34 40 39 37 36 36 37 36 31 29 29 30 27 24 25 24 27
40 41 42 43 43 44 43 40 35 36 36 33 34 37 31 31 32 32 31 30 31 30 29 30 31 31 31 31 33 34 36 35 35 34 29 30 29 28 26 27 24 23 23
40 41 42 42 42 43 40 36 36 37 33 32 30 31 31 29 30 31 30 30 30 30 29 29 30 29 29 31 33 34 35 34 30 28 29 28 24 27 26 23 22 22 22
40 41 42 42 42 42 38 35 37 35 32 30 28 28 29 29 30 30 30 30 29 29 29 29 30 29 32 34 31 28 28 28 29 29 27 27 27 26 22 22 21 20 16
40 42 42 41 41 41 37 35 36 37 35 30 24 26 28 30 31 31 30 31 30 30 29 30 29 30 29 29 30 29 29 29 28 30 29 27 24 21 22 19 19 18 20
40 41 42 40 40 39 36 34 36 39 34 28 25 27 28 30 31 30 30 30 31 29 28 29 29 29 32 30 31 30 30 28 28 27 24 22 21 19 20 18 19 19 18
39 40 40 39 38 36 34 32 38 36 33 28 28 28 28 29 30 29 30 30 29 28 29 28 28 30 31 31 29 26 25 25 25 23 21 20 23 22 22 22 22 22 19
38 39 39 39 38 35 33 32 36 33 30 28 26 26 27 28 27 26 24 26 28 30 29 28 29 30 31 31 27 24 23 24 24 21 19 17 14 21 20 22 23 23 25
37 39 39 39 39 37 32 36 31 30 28 26 26 26 26 22 22 23 24 26 29 29 29 28 28 29 28 29 24 23 24 25 23 22 21 20 19 20 21 19 18 17 15
37 39 39 39 39 35 33 31 30 26 27 26 24 21 21 22 23 23 25 27 28 29 28 27 27 27 29 27 24 22 25 25 23 22 21 19 17 21 21 19 18 15 15
37 38 39 39 37 34 31 27 29 30 24 22 20 21 21 21 22 24 26 28 29 27 26 25 26 27 30 26 23 22 26 26 24 22 21 20 18 19 19 20 19 18 15
37 39 39 36 34 27 28 28 26 26 20 22 21 21 22 23 25 27 27 29 28 29 30 30 30 29 30 28 24 22 24 26 24 22 21 21 20 19 19 19 19 20 17
38 37 34 30 27 26 32 33 28 20 22 24 24 24 24 25 26 28 29 29 29 30 30 34 31 32 30 27 25 23 23 23 25 24 23 24 22 19 18 17 16 17 18
33 30 27 26 32 35 32 22 21 26 26 27 26 26 27 27 27 28 28 29 28 29 29 29 31 29 31 31 27 25 23 23 26 26 24 22 21 19 19 16 16 19 19
24 25 32 35 33 29 21 23 27 29 27 26 26 27 28 26 27 26 26 28 30 30 28 28 28 28 26 27 30 28 27 25 26 26 26 24 23 22 21 21 19 19 19
33 34 31 27 24 25 27 28 28 28 26 27 28 28 31 30 28 26 27 29 30 30 29 30 30 35 33 28 29 29 30 30 27 25 26 24 23 21 20 19 19 19 18
29 27 29 27 26 28 28 28 29 30 30 30 30 32 31 30 28 26 27 30 31 31 28 28 30 35 31 30 28 27 26 23 24 23 23 24 26 23 21 20 19 19 18

GFSMW_sfc_dewp_024.txt.gz
Dewpoint
47 49 52 53 52 58 61 62 62 62 61 61 59 58 57 55 55 50 52 50 49 48 48 50 50 49 48 48 46 44 43 42 42 38 38 38 36 36 32 35 35 36 31
46 51 52 55 57 59 61 62 61 62 60 60 58 56 54 54 50 50 50 49 49 47 47 48 47 48 46 44 44 43 42 41 41 37 35 32 32 33 33 34 33 32 35
48 50 53 56 58 60 61 60 60 60 60 58 54 52 50 50 48 49 48 48 48 47 46 46 46 45 44 43 43 42 41 39 38 38 36 32 30 32 34 31 31 31 32
47 50 53 55 60 60 60 59 59 58 55 55 53 51 48 47 49 49 49 47 47 45 41 41 43 44 45 43 43 39 41 39 36 37 36 36 34 28 25 27 27 27 25
46 50 53 56 57 59 59 58 56 53 52 51 52 51 49 49 48 47 43 41 41 38 36 37 40 41 41 43 43 43 40 39 37 37 35 32 32 30 27 22 23 24 26
48 50 53 54 54 56 55 55 49 47 50 50 51 50 47 44 41 39 38 36 36 36 37 37 39 40 41 41 42 41 40 40 40 39 35 32 29 26 26 24 24 24 24
49 50 50 50 50 51 51 50 46 46 49 48 46 45 41 41 40 37 36 34 34 34 36 36 38 39 40 41 41 41 39 40 40 38 34 33 31 30 29 28 26 25 26
49 47 47 47 48 49 48 47 45 45 44 44 41 40 39 38 38 38 34 35 34 34 35 36 37 38 39 40 40 40 40 40 40 37 37 34 34 32 30 28 28 25 24
45 43 43 45 46 47 48 48 45 43 41 40 41 41 40 39 39 37 36 36 35 30 35 36 36 36 37 39 37 41 41 41 40 37 38 36 36 34 32 32 29 27 24
42 41 41 45 45 47 48 50 47 41 39 40 42 38 38 40 39 37 35 33 34 34 35 35 35 35 35 36 38 38 37 37 38 38 38 37 35 32 32 30 29 27 26
41 41 41 44 45 47 46 47 43 37 38 40 40 40 39 39 37 37 35 33 34 34 34 34 33 33 34 34 35 35 35 36 36 36 36 36 33 31 30 30 28 25 25
42 41 42 44 45 45 45 45 41 37 40 38 36 37 39 36 37 36 34 34 33 34 33 33 32 33 33 34 35 35 34 34 33 31 32 31 27 29 29 27 24 23 22
41 41 42 43 43 44 45 42 39 39 38 35 34 34 36 35 36 34 35 34 34 33 33 32 33 33 33 34 34 33 32 31 31 31 31 30 29 27 25 24 21 21 19
40 41 42 43 43 44 43 41 39 41 37 36 35 32 36 36 34 35 35 34 34 33 33 33 33 34 32 31 32 31 30 31 31 31 30 29 26 22 21 18 19 18 20
37 39 42 43 43 44 43 40 39 40 40 38 33 34 34 33 34 36 35 35 35 33 33 32 32 33 32 30 32 30 30 30 29 29 27 25 23 22 20 17 19 20 20
31 37 41 44 43 42 43 40 38 39 42 38 34 33 34 32 35 35 34 35 34 32 32 32 32 33 30 31 29 26 25 27 26 25 23 22 25 25 25 25 24 23 20
33 36 42 43 44 42 42 39 37 41 40 35 33 33 33 32 34 30 29 29 31 33 33 33 32 31 31 31 28 25 23 25 26 24 22 20 17 25 22 23 22 22 24
36 38 40 42 43 42 40 38 35 38 36 32 30 32 32 29 28 29 28 30 32 32 33 32 32 31 30 31 27 25 22 26 25 23 23 21 21 22 21 20 19 19 18
36 37 39 41 42 41 39 35 36 32 30 32 32 31 27 26 27 27 29 31 31 32 32 31 30 30 29 30 27 23 24 27 25 24 23 22 19 22 21 20 19 17 17
35 36 39 40 41 40 36 32 32 33 33 30 27 26 25 27 27 29 30 31 31 31 31 30 31 29 30 29 26 23 27 26 27 25 23 22 20 19 19 20 20 18 18
37 40 40 36 29 30 32 31 33 32 32 32 27 27 29 29 29 30 30 31 31 31 31 29 30 29 31 28 27 25 25 26 26 25 24 25 21 22 21 18 20 19 18
37 33 29 31 34 35 35 33 32 30 31 29 29 29 30 28 26 31 31 31 31 31 31 31 31 32 30 30 29 27 25 25 23 25 25 25 23 23 21 20 20 19 20
27 27 32 35 34 34 33 31 29 28 29 31 31 31 29 29 29 29 29 29 30 31 31 31 32 30 31 31 29 29 27 26 23 25 26 25 24 25 23 23 21 19 19
27 34 34 32 31 29 29 29 30 31 31 31 30 29 30 29 29 29 28 29 30 30 31 31 30 30 30 31 29 27 26 26 25 25 26 24 23 21 21 21 23 23 22
32 31 30 31 33 32 30 30 31 31 29 28 29 31 32 32 31 29 29 30 29 30 30 30 32 32 29 30 29 31 31 31 28 22 21 21 23 22 22 22 21 22 22
32 32 32 31 31 31 29 29 30 31 31 31 32 33 32 32 30 29 29 30 31 31 31 30 29 32 32 30 29 29 29 28 25 21 19 17 19 21 21 18 19 18 18

GFSMW_sfc_dewp_027.txt.gz
Dewpoint
46 45 45 49 55 58 59 60 59 60 59 58 57 57 56 55 52 49 49 48 46 46 47 47 47 46 45 43 43 42 40 39 41 37 35 35 35 32 34 34 33 31 33
46 49 50 53 58 58 61 61 60 60 59 59 59 57 55 52 48 48 46 46 46 45 46 45 45 43 42 41 41 40 39 40 38 34 34 32 33 34 33 32 30 29 32
48 50 51 54 60 60 61 61 60 60 59 59 59 52 49 47 46 46 45 46 46 45 44 44 42 41 41 40 40 40 39 37 36 36 34 32 30 31 31 28 28 27 28
49 50 52 54 60 60 61 60 61 59 59 59 50 46 45 45 46 47 46 45 46 40 36 38 37 38 41 40 42 40 39 38 35 36 37 33 33 27 26 27 26 26 25
49 51 53 58 59 60 60 59 59 59 56 52 49 48 46 46 46 44 39 33 34 35 34 37 36 36 38 38 39 40 40 38 36 37 35 32 30 28 25 23 23 25 26
48 51 56 57 58 59 58 57 50 47 49 48 48 46 45 38 35 34 33 32 35 35 36 34 35 36 37 38 39 40 38 39 39 38 37 33 29 26 26 25 25 25 26
50 53 55 54 53 51 49 46 46 47 45 42 39 39 36 34 33 33 33 33 32 32 32 32 35 35 37 38 39 38 38 38 37 37 36 34 32 31 29 28 26 25 27
50 51 50 50 50 48 45 45 46 44 42 42 36 35 35 36 36 34 34 34 33 32 32 33 33 34 35 36 38 39 38 38 38 37 36 36 34 34 32 30 27 25 24
47 48 48 48 47 46 46 45 45 42 42 37 36 36 35 36 37 34 34 34 33 30 32 33 32 33 33 33 35 37 39 39 39 38 38 36 36 37 36 34 30 29 23
44 45 46 46 46 46 47 46 44 41 38 38 38 36 35 37 36 35 35 32 32 31 32 32 32 32 33 33 34 36 35 35 36 37 36 37 37 37 36 32 29 27 27
42 43 44 45 46 46 46 46 42 38 37 39 38 36 36 37 37 36 34 33 33 31 31 31 31 31 32 33 33 34 33 34 34 35 36 35 36 35 33 30 27 25 23
41 41 42 44 45 45 45 46 38 36 38 38 37 36 37 37 36 37 34 34 32 31 31 31 32 33 33 33 33 33 32 31 31 31 30 30 28 27 27 25 21 20 20
41 40 41 43 45 45 45 44 37 37 38 34 34 34 37 36 35 34 34 34 32 31 31 31 32 33 33 32 33 33 31 30 31 31 30 28 27 25 23 21 19 19 19
41 40 41 43 44 44 45 42 38 39 36 34 34 35 36 35 35 34 33 32 33 32 30 31 32 33 33 33 32 32 31 32 31 31 29 28 23 20 19 17 17 18 19
37 41 41 42 43 44 44 42 42 39 36 36 35 35 36 37 34 35 34 34 33 31 32 33 32 32 33 31 31 28 28 27 27 27 26 23 22 24 20 17 18 20 20
31 35 43 44 43 44 44 43 40 39 38 38 38 36 35 34 35 34 32 32 31 32 33 31 31 32 30 32 30 27 25 25 25 24 22 21 24 25 26 25 24 23 21
34 37 41 44 44 45 44 40 39 41 41 40 38 36 35 33 32 29 28 28 28 31 32 32 31 31 31 32 29 27 23 23 25 23 21 21 23 23 21 21 20 20 21
35 35 37 41 44 45 42 39 39 40 38 34 34 31 31 30 29 28 28 30 32 30 30 31 31 32 30 32 30 26 21 24 25 23 22 21 21 22 21 20 19 19 19
33 34 37 40 39 39 37 35 34 34 34 32 28 28 29 29 30 31 32 33 31 30 31 31 31 30 30 31 29 24 23 25 25 24 23 23 20 21 20 20 19 18 18
36 30 30 31 31 32 32 31 31 32 32 31 30 31 33 32 32 34 32 30 29 30 31 28 29 31 29 31 29 25 25 25 25 24 23 23 20 20 20 21 18 18 17
31 34 34 34 33 33 34 33 33 33 33 33 34 34 33 33 33 31 30 30 30 30 30 30 28 29 29 28 30 29 25 25 26 25 24 23 22 22 23 22 20 19 20
34 34 34 34 34 33 33 32 33 33 35 35 34 33 33 32 29 30 30 29 29 28 29 29 29 29 29 30 31 30 27 26 22 24 24 24 26 24 24 24 23 23 22
34 32 31 30 30 29 32 31 32 34 34 33 33 32 32 31 29 28 28 28 28 27 28 28 29 30 30 29 31 30 29 28 23 24 24 27 25 25 26 26 26 23 19
32 31 30 30 31 32 31 32 32 32 32 31 31 31 30 30 30 30 29 28 25 25 28 27 27 30 31 28 28 27 28 27 25 23 24 23 24 21 21 21 23 22 20
30 32 33 33 33 32 31 31 31 31 30 30 30 30 28 29 30 31 30 28 28 28 26 26 27 24 30 32 29 28 26 24 25 18 18 20 18 20 22 20 20 20 19
33 32 31 31 31 31 30 30 30 30 30 30 30 28 27 28 29 29 28 30 31 32 32 32 29 28 30 32 33 34 32 30 30 26 16 13 11 15 20 18 18 15 15

GFSMW_sfc_dewp_030.txt.gz
Dewpoint
49 52 58 58 56 57 58 60 59 58 57 57 56 56 56 55 54 52 49 47 47 47 47 47 45 44 42 40 41 40 39 38 39 35 34 34 34 33 33 32 30 29 30
44 48 54 55 56 57 59 59 59 58 56 57 57 57 56 52 49 48 47 46 46 46 45 45 43 42 41 40 40 39 38 40 37 34 34 31 32 33 31 29 29 26 28
43 45 50 54 56 56 59 59 59 58 57 56 58 53 49 47 46 45 45 45 45 45 44 44 42 42 42 41 40 40 39 36 36 36 33 30 29 30 31 27 27 25 26
44 49 51 55 56 59 60 60 60 59 58 58 56 52 49 45 45 45 45 45 45 39 38 37 37 37 38 37 39 41 39 37 35 35 36 33 32 27 26 27 25 26 25
46 49 55 58 58 60 60 60 60 59 59 58 54 50 47 46 47 46 43 35 35 36 37 36 35 37 38 37 37 38 39 38 36 36 35 33 31 29 27 22 24 26 27
49 51 57 59 60 60 60 60 59 58 56 58 50 48 46 44 42 37 33 34 36 37 34 35 35 35 36 37 38 38 38 38 38 37 38 36 33 27 26 25 25 25 26
50 54 57 58 59 59 59 59 53 47 47 48 47 45 40 38 34 34 34 34 35 34 32 34 34 34 35 35 38 38 37 37 37 36 36 35 33 31 30 28 27 25 26
51 54 55 57 57 57 55 51 47 42 41 40 38 36 34 35 35 35 35 36 34 34 34 34 33 33 33 33 33 36 37 38 37 36 36 36 35 34 32 33 34 30 26
52 52 52 52 50 48 47 47 44 41 39 39 36 38 38 37 36 35 35 36 34 33 34 33 32 34 33 33 33 35 36 38 37 36 36 37 36 37 37 38 37 34 25
49 50 50 49 48 47 47 46 43 41 39 39 39 36 36 37 36 37 35 34 34 33 33 32 32 31 31 32 33 34 34 34 35 36 36 36 36 37 37 34 31 29 28
49 49 49 48 47 46 45 45 42 38 39 36 36 36 36 37 37 37 35 34 34 33 32 32 31 30 31 32 32 33 33 33 34 33 34 36 35 35 34 31 26 24 22
47 48 48 47 46 46 46 44 41 37 35 37 37 37 37 39 37 36 35 34 33 33 32 32 31 31 32 32 33 33 33 31 30 31 31 31 32 29 27 25 21 20 20
43 45 46 46 46 46 45 44 41 38 38 40 36 36 36 37 35 36 35 34 32 32 32 31 30 31 32 33 33 34 32 30 31 31 30 29 28 26 24 21 19 19 19
43 41 43 44 45 45 45 44 40 40 40 37 34 35 36 37 35 36 34 34 33 33 32 32 32 34 32 32 32 31 31 31 31 31 29 27 25 21 20 18 17 18 19
42 41 41 42 44 45 45 41 40 42 39 37 35 35 37 37 36 35 34 34 34 32 32 32 33 34 33 32 32 30 29 27 26 26 24 23 23 25 21 18 18 19 19
34 38 41 43 44 45 45 44 40 40 39 36 36 37 38 37 37 35 34 30 29 29 31 31 33 32 32 33 34 30 25 25 25 24 22 21 24 26 26 25 24 21 19
36 42 43 43 44 45 44 43 42 39 37 38 39 37 35 32 32 31 29 30 31 32 31 31 32 32 33 33 32 30 24 24 24 24 21 20 23 24 21 21 20 19 18
34 36 39 44 44 45 43 40 41 42 39 34 33 33 33 31 32 33 34 35 34 32 31 31 32 32 32 33 32 29 22 23 25 24 22 22 21 22 21 19 18 18 18
33 32 33 34 34 37 37 35 34 31 29 29 31 32 33 34 36 37 36 34 33 30 30 31 32 31 31 33 31 26 22 24 25 25 24 23 21 23 23 20 19 18 18
33 33 33 32 32 32 32 31 31 32 33 33 34 36 37 37 36 36 34 32 30 30 31 30 30 30 29 33 31 27 24 24 25 25 23 24 22 24 22 22 20 17 16
33 33 33 33 33 34 34 33 34 34 36 38 39 38 38 37 35 34 31 30 29 28 27 28 29 29 29 29 32 31 24 25 25 25 24 23 25 24 24 24 21 18 19
34 33 33 33 33 34 35 35 36 36 37 38 38 36 34 32 31 31 28 28 27 27 27 25 27 28 30 30 31 32 29 26 24 25 25 24 25 26 26 25 25 25 24
30 29 29 30 31 32 33 33 35 36 35 33 32 32 32 32 31 28 27 27 27 25 26 27 25 27 29 30 31 32 31 29 24 25 25 25 27 27 26 27 27 23 20
30 29 30 32 33 32 31 32 32 31 31 30 30 30 30 29 29 29 29 29 25 25 27 27 26 25 27 28 28 31 31 29 27 25 25 24 24 21 21 21 23 22 20
33 33 33 32 31 31 31 30 30 31 29 29 29 29 28 29 29 29 30 29 28 27 26 26 26 23 25 27 30 28 29 29 28 25 20 20 19 21 22 20 21 20 18
32 31 32 31 31 30 30 30 30 30 29 29 29 28 27 27 29 28 28 30 31 31 32 32 29 27 30 30 31 33 33 31 30 25 23 22 19 19 20 18 18 16 15

GFSMW_sfc_dewp_033.txt.gz
Dewpoint
54 56 57 57 60 59 59 59 58 57 56 56 56 55 55 55 54 53 49 48 50 48 46 45 44 43 40 40 40 39 38 38 37 35 34 34 33 32 32 30 28 27 28
54 56 57 58 59 58 59 59 58 57 56 56 56 56 55 53 52 50 47 47 47 46 45 44 43 41 40 39 39 38 38 39 36 34 33 30 32 33 31 29 28 25 27
52 54 57 58 58 57 58 58 58 57 56 56 56 53 49 48 46 45 45 45 46 45 44 43 42 41 41 39 39 39 38 36 37 35 33 30 29 30 31 28 26 24 26
48 50 55 57 56 56 58 59 58 58 56 56 56 53 52 49 45 45 45 45 44 41 38 37 37 37 38 37 38 39 38 37 35 35 36 33 31 28 28 28 26 26 25
44 47 52 55 56 56 58 59 59 59 57 56 56 54 51 46 46 45 44 35 37 37 36 37 37 37 37 37 37 38 38 38 36 35 35 34 32 30 29 25 24 26 27
46 49 50 54 55 58 58 58 59 58 58 57 55 54 49 46 44 42 36 35 37 36 36 35 36 37 37 36 38 38 37 38 37 37 36 35 33 29 27 26 25 25 27
48 53 56 56 57 58 58 58 58 58 58 58 53 50 47 45 43 39 35 36 35 34 35 35 36 36 35 35 37 37 37 36 36 35 36 35 33 32 30 28 28 27 26
48 53 56 57 57 58 58 59 58 52 51 53 49 46 45 47 47 44 38 36 35 35 35 35 35 34 34 33 32 34 35 37 37 37 37 36 36 35 33 31 33 33 31
50 54 57 58 58 58 58 57 51 47 45 45 42 40 42 42 42 41 36 35 36 34 35 35 34 34 33 32 33 34 34 37 37 36 36 36 37 36 36 37 37 35 28
52 53 55 55 55 54 51 50 46 43 41 40 40 39 38 37 36 35 35 34 35 36 35 34 33 33 32 32 32 33 34 34 34 35 34 35 36 37 36 35 33 33 29
51 52 53 53 52 49 48 46 42 38 38 39 38 38 37 38 35 33 33 33 35 34 34 34 33 32 31 32 33 33 33 33 32 33 32 33 35 35 34 33 29 26 26
50 51 51 50 48 48 47 45 42 39 39 40 41 39 37 36 35 34 34 35 33 34 34 33 32 31 31 31 32 31 32 32 30 30 31 32 34 33 29 27 24 21 20
48 49 49 48 47 46 46 46 44 43 41 41 40 36 37 36 35 35 35 34 33 33 32 32 31 31 32 32 32 32 33 31 30 30 30 29 28 26 26 23 21 19 18
45 47 47 48 48 47 46 46 45 42 41 40 38 38 37 37 35 35 35 35 34 33 32 32 33 33 33 32 32 32 31 31 31 31 30 29 27 25 22 20 19 17 18
44 43 45 46 47 48 47 46 44 44 44 40 38 39 37 38 37 37 36 36 35 33 33 33 33 34 33 31 33 31 30 29 28 28 26 24 23 25 22 18 17 19 19
41 42 42 44 46 46 46 44 43 43 41 40 40 39 39 38 37 35 34 33 33 33 33 34 34 33 31 33 35 32 29 27 25 24 23 21 26 27 28 26 25 22 19
38 40 42 42 43 45 45 42 42 41 40 39 40 37 34 32 33 33 34 35 36 37 35 33 31 31 32 34 35 33 27 25 24 24 22 21 20 26 25 26 23 21 21
35 34 35 41 44 44 42 41 40 39 37 35 33 33 34 34 35 35 37 38 37 36 35 32 31 31 31 33 34 33 24 24 24 25 23 22 21 24 21 20 19 19 19
33 33 33 33 34 34 35 31 31 31 32 32 35 36 37 37 38 37 37 37 37 35 31 31 30 29 29 33 34 31 23 23 24 25 24 23 22 24 26 22 20 19 19
33 33 33 33 32 32 32 31 31 32 33 35 37 39 39 38 37 37 37 35 32 30 30 28 28 30 29 31 34 31 24 24 25 25 25 28 24 25 26 22 21 19 18
33 33 34 34 33 33 34 34 36 37 38 40 40 39 39 38 38 36 35 33 30 28 27 27 28 28 29 29 32 33 26 25 25 25 24 24 27 26 26 25 22 20 20
32 32 33 33 34 35 36 36 36 37 38 39 38 37 37 34 32 31 30 29 28 27 27 25 27 27 28 30 31 32 32 28 26 25 25 25 27 27 26 26 26 26 24
28 29 31 31 32 33 35 35 36 35 34 32 31 31 31 31 31 29 28 27 27 26 26 27 26 26 27 27 31 32 32 32 28 29 26 27 27 28 27 28 28 24 20
29 31 32 31 31 31 31 32 32 31 30 29 29 29 29 29 29 29 29 28 26 25 27 27 26 26 26 26 26 27 28 30 31 29 28 27 27 25 25 22 25 22 21
33 33 32 31 31 31 30 30 30 30 29 29 29 29 28 28 29 29 29 29 29 28 27 27 26 24 25 26 28 28 26 28 30 29 26 25 24 23 23 21 22 20 19
32 31 31 31 29 29 29 30 31 30 29 29 29 28 28 28 28 28 28 30 31 31 31 31 29 29 29 30 30 31 32 32 31 27 23 23 23 23 22 21 21 17 16

GFSMW_sfc_dewp_036.txt.gz
Dewpoint
52 53 55 56 57 59 59 59 57 57 57 56 55 54 54 55 54 54 51 52 50 48 47 46 44 43 41 40 39 39 37 39 37 35 35 35 35 34 32 31 29 29 29
52 52 56 56 57 59 59 58 58 57 57 57 55 55 54 53 53 50 47 49 47 46 45 44 42 41 40 40 39 39 38 39 37 34 34 32 33 33 32 30 28 28 28
53 53 56 56 57 59 59 59 58 57 56 56 55 52 50 49 48 46 45 46 46 45 44 43 42 41 40 38 39 39 38 36 37 36 34 31 29 31 32 30 28 27 28
51 54 55 56 57 58 58 59 58 57 56 56 55 53 53 50 48 46 45 45 45 42 40 38 37 37 38 37 38 38 39 38 36 36 36 34 32 30 30 30 28 28 27
46 51 54 56 58 57 57 58 58 57 57 56 56 54 52 52 50 45 44 39 38 37 37 37 37 37 38 37 39 39 39 38 36 35 35 34 33 32 30 28 26 27 28
44 48 51 55 57 56 57 57 58 58 57 56 55 54 51 48 48 45 39 37 37 36 36 35 36 36 36 37 39 38 37 37 37 37 36 35 33 32 29 26 26 26 27
43 46 48 53 55 55 56 57 58 58 58 57 55 53 51 50 48 44 39 37 36 36 35 35 36 36 36 38 37 37 37 36 36 36 36 36 35 33 31 29 28 27 29
44 45 48 51 54 56 57 57 58 58 58 57 56 54 54 50 49 45 40 39 36 37 37 37 38 39 37 35 34 34 34 35 37 36 36 36 36 35 33 31 30 31 33
44 46 50 53 55 56 57 57 58 58 57 57 54 52 51 50 47 44 42 37 36 35 36 41 39 37 34 33 34 34 34 36 37 37 37 35 36 36 36 35 35 36 29
48 50 54 55 56 56 57 57 58 56 53 52 51 49 48 48 47 43 39 37 35 35 40 38 35 35 34 33 34 34 35 36 35 35 34 34 35 35 35 35 35 36 33
49 52 54 56 56 56 55 55 53 49 45 45 44 44 44 46 45 43 40 37 35 37 38 34 34 34 33 33 32 33 34 33 33 33 34 33 33 35 34 33 32 30 30
49 51 52 52 53 53 52 52 49 45 44 45 44 45 44 43 41 38 34 35 34 37 34 35 34 33 32 32 32 33 32 33 32 32 31 33 34 33 32 31 28 25 23
49 50 50 50 51 50 50 49 46 44 43 44 44 44 39 39 34 33 34 35 35 35 34 34 33 33 33 33 33 32 32 32 32 30 30 30 29 29 28 26 24 21 19
47 48 49 49 48 49 49 47 46 43 43 43 42 38 41 37 36 36 35 35 35 34 33 34 34 34 33 33 33 32 32 32 32 31 31 30 29 28 26 24 22 19 18
46 46 47 48 48 48 48 47 46 44 45 41 39 39 39 38 37 37 36 37 35 34 34 34 36 36 36 32 33 32 32 31 30 30 30 30 29 30 25 20 20 18 18
42 43 43 46 47 48 47 46 44 43 43 41 40 40 40 38 39 37 35 34 34 36 38 38 37 37 33 33 35 34 31 30 28 27 26 24 27 29 31 30 24 20 20
36 36 40 43 44 44 45 44 42 42 40 40 40 38 37 34 34 35 36 37 38 38 38 37 37 35 33 33 35 35 30 28 27 26 25 23 20 26 24 28 29 26 25
34 33 35 36 37 40 40 39 39 37 35 34 34 35 36 37 38 38 38 38 38 38 38 36 35 33 32 33 34 34 31 28 26 25 25 23 22 23 24 23 22 20 19
33 33 33 32 32 32 32 32 33 33 34 35 37 38 39 38 38 38 38 38 38 37 36 34 32 30 29 32 33 33 30 26 25 24 25 24 23 25 28 23 21 19 19
33 33 32 32 32 32 32 33 34 35 37 38 39 39 39 39 38 38 37 37 37 35 31 30 29 29 29 30 32 32 27 26 26 25 25 29 25 27 28 26 22 20 19
33 34 34 33 33 34 35 36 37 37 39 39 40 39 39 39 39 38 36 34 32 30 29 28 28 28 28 28 31 33 29 28 27 26 25 26 28 30 28 28 23 21 21
32 33 33 34 35 36 36 36 36 38 38 39 38 37 36 33 32 31 30 30 29 27 27 26 27 28 28 29 30 32 32 31 27 26 26 27 28 31 29 28 27 26 25
30 31 32 32 32 33 33 33 33 33 32 30 30 30 30 30 29 29 28 28 27 25 26 27 27 28 28 27 30 31 32 32 30 28 28 29 30 31 30 29 28 26 25
30 31 31 30 30 31 31 31 31 30 29 28 29 29 28 29 28 28 29 28 26 26 27 27 28 27 27 26 27 27 26 27 29 29 30 30 29 29 30 27 29 28 25
32 32 31 30 29 30 31 31 30 30 29 29 30 29 28 28 28 28 28 28 28 29 28 28 28 28 28 28 29 28 25 25 26 25 30 29 27 26 26 26 26 26 24
31 30 29 29 30 28 28 29 30 29 29 28 29 27 27 26 27 27 27 29 31 31 31 32 31 30 31 31 32 31 33 33 32 29 28 25 26 25 25 25 24 24 23

GFSMW_sfc_dewp_039.txt.gz
Dewpoint
54 53 55 56 56 57 59 59 61 62 60 60 59 59 60 61 61 60 60 58 55 52 52 49 48 47 45 44 45 43 43 41 42 39 37 38 38 37 34 33 32 30 30
53 53 54 55 56 56 58 61 61 61 60 60 58 58 59 58 58 57 55 56 53 51 50 48 46 45 44 45 45 44 41 42 41 36 36 32 34 35 36 35 32 34 31
53 52 54 55 56 56 58 60 60 60 59 59 58 56 55 54 54 52 51 52 51 49 48 48 45 45 45 42 43 42 42 37 40 41 34 30 28 34 36 36 34 35 32
52 53 53 55 56 56 58 59 60 60 59 59 58 57 56 54 54 52 49 49 49 48 46 45 45 43 41 41 41 40 41 40 36 39 38 39 37 30 29 34 34 34 32
50 52 54 54 56 58 60 60 60 60 59 59 59 59 57 57 54 50 49 48 47 46 43 42 42 41 39 41 42 43 42 41 41 37 39 39 38 38 32 26 28 30 30
48 49 53 56 56 59 60 61 60 59 59 58 58 57 57 54 52 48 46 45 43 41 41 39 40 40 39 41 42 43 43 41 40 39 39 35 33 31 31 29 29 30 31
47 47 49 53 56 58 59 60 59 59 59 58 57 57 56 54 52 49 46 44 42 40 39 39 39 38 39 41 42 41 41 41 39 40 38 39 37 36 34 32 30 30 29
46 46 47 50 55 57 59 59 59 59 58 58 58 57 56 54 54 51 47 44 42 40 39 39 39 39 39 39 39 39 38 39 39 40 40 38 38 38 36 33 32 30 28
43 45 47 49 53 57 58 59 59 59 59 59 58 57 56 55 53 50 47 46 42 39 40 40 41 41 39 38 37 37 37 39 41 41 41 39 37 38 37 37 36 35 30
41 45 47 50 52 56 57 59 59 58 59 59 58 57 57 56 53 49 46 45 42 40 39 41 42 38 37 37 37 36 36 38 39 39 38 38 36 36 36 36 36 36 35
45 47 49 53 54 56 57 57 58 58 58 57 57 57 55 54 52 50 47 44 42 40 38 41 38 37 35 35 35 35 35 36 37 37 37 36 37 35 35 37 36 35 34
44 48 52 54 56 57 57 57 57 57 56 55 53 53 53 51 50 49 47 44 42 39 38 38 36 36 34 34 34 34 36 35 35 35 35 35 32 36 36 35 35 32 31
46 49 52 53 54 55 55 55 55 54 51 49 49 49 48 49 49 49 47 43 39 38 38 36 35 36 35 34 34 38 37 34 34 34 34 34 34 34 33 33 32 30 27
45 49 51 51 52 53 53 53 51 49 47 47 47 47 47 47 46 42 39 38 38 36 37 37 37 35 34 36 39 38 35 34 34 35 35 34 34 33 32 30 30 28 26
46 47 49 50 50 50 50 50 48 47 46 44 43 43 43 41 40 39 39 39 38 36 36 36 39 39 39 39 38 36 36 35 34 35 34 34 34 35 33 29 28 25 22
42 43 43 46 48 49 49 48 46 45 45 43 41 41 40 39 39 39 38 37 36 39 39 39 39 39 40 36 36 35 33 34 33 32 33 33 33 34 33 31 29 25 23
38 39 41 43 44 45 47 46 45 44 43 41 40 39 37 36 37 38 39 39 39 40 39 40 41 39 38 36 35 35 33 33 33 32 32 30 25 28 26 29 31 28 26
36 36 37 37 38 40 40 40 39 39 38 37 36 36 37 38 39 39 39 39 40 40 40 40 38 37 36 34 33 33 32 32 33 33 32 31 30 28 25 24 25 25 25
34 34 34 35 35 36 36 36 36 36 37 37 37 38 38 39 39 39 40 40 40 40 38 37 37 37 34 32 32 32 31 32 32 31 30 30 29 29 28 25 24 23 22
34 34 34 34 34 35 36 36 37 37 38 38 39 39 39 39 39 39 39 38 37 37 36 34 34 32 32 31 32 31 32 31 30 31 30 30 28 29 29 28 28 25 21
34 34 34 35 36 37 38 37 38 38 39 40 40 40 39 39 38 37 36 35 34 34 34 32 33 32 31 31 32 32 32 32 31 30 29 30 30 30 30 30 30 30 25
34 34 35 36 37 37 37 37 37 38 38 36 34 32 32 31 30 32 32 31 31 31 31 33 32 32 32 31 32 32 32 31 33 31 31 32 31 30 30 30 32 31 27
33 34 34 33 33 33 33 31 31 30 29 29 29 30 30 30 29 29 30 29 30 30 30 30 31 30 32 32 32 31 31 31 33 34 33 32 31 30 29 31 32 31 30
31 31 31 30 30 30 30 30 30 30 30 30 30 30 29 28 28 27 27 27 28 29 28 29 29 30 30 31 32 32 33 31 32 31 32 32 30 30 31 31 31 32 31
30 30 30 30 30 29 29 30 30 30 28 28 27 26 26 25 23 23 25 25 25 27 26 25 27 28 29 28 31 32 32 34 34 32 32 32 32 30 29 29 31 31 31
30 29 29 27 26 26 25 25 25 23 23 21 21 22 22 22 20 19 18 24 24 24 25 26 27 29 27 24 24 25 28 30 31 32 31 32 31 30 27 27 27 29 29

GFSMW_sfc_dewp_042.txt.gz
Dewpoint
49 54 56 57 56 56 56 56 58 60 60 61 58 54 52 55 60 62 62 61 59 58 57 54 54 52 50 49 49 45 43 40 39 38 39 39 40 39 35 34 32 32 32
49 50 54 55 56 56 58 58 57 58 60 59 59 54 55 54 57 60 61 61 60 57 56 54 52 51 48 49 47 45 41 39 41 39 38 38 36 37 37 34 34 36 33
48 50 50 53 55 55 56 57 57 59 60 59 58 55 57 59 59 60 60 59 59 56 54 54 51 50 48 46 46 43 39 39 41 41 38 33 30 32 34 38 36 36 34
48 48 50 50 52 54 56 56 57 59 59 60 58 57 54 53 56 58 57 56 57 55 52 52 51 50 47 45 43 38 41 41 39 42 38 38 33 28 29 34 36 35 32
46 48 50 50 51 54 56 57 57 59 59 60 60 59 58 56 57 57 55 55 55 53 51 51 50 49 45 44 41 43 42 42 43 39 36 37 36 37 32 26 26 29 30
46 47 48 51 52 54 56 57 57 58 60 61 61 61 61 59 59 56 53 52 52 51 50 48 48 47 43 43 43 44 44 42 40 37 35 33 33 30 29 29 30 29 29
46 47 47 49 52 54 57 58 57 56 60 61 61 61 61 61 58 57 54 51 51 50 49 47 46 43 42 42 44 44 43 41 40 38 35 35 33 33 32 30 28 27 27
43 45 48 49 51 54 57 59 58 58 60 61 59 60 60 60 59 59 56 52 50 49 47 46 44 41 41 43 43 42 41 40 38 39 37 34 36 35 32 29 29 29 27
36 40 45 48 50 54 57 60 59 59 59 60 60 59 59 59 58 58 56 52 50 47 46 44 41 42 42 43 41 40 38 37 39 39 39 37 34 34 32 32 31 32 30
38 41 43 45 49 52 56 60 60 58 59 61 60 59 59 59 58 57 55 51 48 45 44 42 41 42 42 40 39 38 37 37 39 36 36 35 32 33 34 32 31 31 30
40 43 45 48 50 52 54 57 57 57 58 59 59 59 59 59 58 57 55 52 50 47 43 41 41 42 39 38 37 38 34 37 39 38 35 34 34 33 32 32 31 30 29
39 43 47 51 52 53 54 55 56 56 57 59 59 59 58 57 57 55 54 51 48 44 43 42 42 38 37 37 38 37 35 41 39 34 34 33 29 34 34 31 32 30 29
39 45 49 51 53 55 56 56 57 57 57 57 56 56 55 54 53 52 50 48 46 45 42 41 39 37 38 37 38 40 41 42 39 36 34 33 34 33 32 31 30 28 24
34 44 49 50 52 55 56 56 57 56 54 53 53 53 53 52 53 52 50 48 46 42 41 41 41 39 36 36 39 41 41 40 40 37 35 35 34 33 32 29 30 28 27
41 46 48 50 52 53 54 54 53 53 52 51 50 50 50 48 47 46 45 44 44 40 39 38 40 40 39 40 40 39 39 39 37 36 34 36 36 36 34 28 29 29 26
43 45 48 50 50 51 51 51 50 50 49 47 46 45 44 42 41 41 40 39 38 39 40 40 41 40 38 39 37 38 39 39 34 33 33 33 36 36 36 35 34 31 28
42 43 44 45 46 48 49 48 47 47 46 44 43 42 41 39 39 38 37 39 39 41 41 40 39 39 40 38 38 37 36 33 32 32 31 29 26 33 33 34 33 31 29
39 40 41 42 44 45 45 45 43 43 42 41 39 39 40 39 39 39 39 40 40 40 39 40 40 41 39 37 37 34 33 32 30 30 30 31 31 31 32 31 30 29 28
39 39 39 40 41 41 41 40 40 40 39 39 39 39 39 39 39 39 40 41 40 41 40 39 38 37 38 37 34 32 32 29 30 29 29 29 30 31 34 31 30 29 29
37 38 38 39 39 39 40 40 39 39 38 39 38 39 39 39 39 40 40 39 38 38 37 36 36 34 34 34 33 32 32 31 31 31 30 30 30 31 32 31 30 29 28
36 37 38 38 39 39 39 38 38 38 39 39 40 39 38 37 37 35 34 33 32 32 34 34 34 33 33 33 34 34 33 33 34 32 30 30 31 32 32 31 30 32 32
36 37 38 38 38 38 38 37 37 38 38 36 33 31 29 26 26 28 29 28 29 30 31 35 32 33 33 32 33 33 33 32 34 33 34 34 33 32 32 31 30 30 31
35 36 36 37 37 37 36 35 34 32 30 28 28 29 29 29 29 29 29 28 29 29 29 27 29 27 29 29 30 30 31 30 33 33 33 34 34 34 31 31 30 30 32
34 34 34 33 33 32 31 30 29 28 28 29 28 28 27 26 25 22 20 20 23 24 23 23 23 24 25 26 28 26 27 26 29 29 32 31 32 33 34 33 33 32 33
33 33 32 31 30 30 29 29 28 28 26 26 24 22 22 18 16 15 18 21 22 24 23 23 23 27 27 25 23 23 24 26 26 28 32 29 31 31 32 33 32 32 32
32 31 30 29 27 27 26 25 24 23 22 18 18 21 21 21 16 14 15 24 22 21 22 22 23 25 22 20 21 22 22 23 23 29 28 30 32 32 31 33 31 29 29

GFSMW_sfc_dewp_045.txt.gz
Dewpoint
49 53 52 52 52 53 54 54 55 56 60 59 54 51 50 50 51 54 56 59 59 59 59 56 57 57 54 53 53 50 47 43 41 39 43 43 43 42 38 37 35 34 34
49 53 53 51 54 53 53 54 54 55 59 60 57 53 51 48 51 54 60 61 60 59 58 58 56 56 53 53 52 49 45 43 42 43 43 42 41 40 40 37 36 39 36
44 49 51 52 53 52 53 53 54 56 57 56 56 54 51 51 50 53 56 61 60 59 58 58 56 55 54 52 51 49 47 41 44 46 43 41 38 35 38 40 39 40 36
43 44 47 52 53 54 55 55 55 55 57 57 57 55 50 51 54 57 58 59 61 60 57 56 56 55 53 52 51 47 46 44 44 44 41 43 41 34 32 36 39 38 37
42 44 45 45 51 54 55 56 56 55 56 57 57 58 55 53 54 56 59 60 59 59 56 56 56 55 53 52 51 47 46 45 44 44 45 41 40 40 37 34 32 34 32
40 43 45 46 46 49 55 58 55 55 56 57 58 58 58 57 58 60 58 56 57 57 56 54 55 55 53 51 47 46 49 45 45 44 40 38 35 35 35 33 33 32 32
40 41 42 45 47 49 53 55 54 53 56 59 60 60 61 61 60 61 59 57 57 56 55 55 54 52 51 50 46 48 47 46 42 44 40 36 37 36 34 33 32 29 29
40 41 41 43 47 50 52 55 54 54 54 59 61 62 62 62 62 61 60 58 58 56 56 54 51 49 49 47 47 46 44 44 44 43 39 38 36 38 35 33 31 30 29
35 39 41 43 45 49 54 58 57 55 56 60 61 62 61 60 61 61 60 59 57 55 53 51 48 47 45 47 46 43 40 43 43 42 44 41 41 40 35 33 32 32 30
35 35 38 42 45 48 54 60 59 58 58 61 61 60 60 60 60 60 59 57 56 52 49 48 46 45 44 45 44 41 38 40 44 42 43 41 39 35 33 33 33 31 31
38 40 40 41 44 48 51 55 58 58 59 60 60 60 58 59 60 60 59 57 54 51 48 47 45 44 45 44 41 38 38 40 42 43 44 41 38 36 35 36 32 30 29
33 39 44 47 48 49 50 54 57 57 57 60 60 60 59 58 59 59 58 56 54 52 48 45 43 45 43 41 39 39 37 39 42 42 42 40 34 38 37 35 35 32 32
33 39 45 48 50 51 53 54 56 55 55 56 59 59 59 58 57 56 54 52 51 49 45 44 45 42 41 39 40 40 42 43 41 42 42 39 38 37 37 36 35 31 27
30 36 44 47 50 53 54 55 56 57 57 56 56 56 55 54 54 53 51 49 48 47 47 44 42 41 41 39 40 41 41 39 39 41 42 41 38 37 37 35 35 31 32
32 35 43 47 51 53 54 56 56 55 55 54 54 54 53 53 53 52 51 49 47 44 42 42 40 41 41 41 41 39 38 40 40 41 40 39 38 38 37 34 36 34 31
38 43 46 49 51 53 53 53 53 53 53 51 50 50 48 46 46 45 45 45 43 42 41 40 41 41 39 39 38 38 40 40 39 40 38 35 34 36 35 35 35 35 33
42 44 47 49 51 51 51 51 50 50 48 46 45 44 43 42 41 40 39 39 40 40 41 41 40 40 39 38 38 37 39 39 38 37 33 29 25 31 29 33 34 34 34
43 44 45 46 47 47 47 47 45 45 44 43 42 42 42 40 40 40 40 41 41 41 41 40 39 39 39 38 37 37 39 37 33 32 30 30 30 31 32 32 33 34 34
41 41 42 43 43 43 43 43 42 42 41 41 41 41 41 40 40 40 41 41 41 41 41 40 39 39 39 37 37 37 34 32 31 29 29 29 30 31 33 31 33 32 32
39 40 41 41 41 41 41 41 40 40 39 40 40 40 40 40 40 41 41 41 40 39 37 36 35 34 33 35 35 33 33 32 32 31 31 31 31 31 32 33 31 31 31
38 40 40 40 40 41 41 39 39 39 39 40 40 40 40 40 39 37 34 32 31 31 34 33 33 32 31 32 34 33 32 33 33 32 32 33 33 34 34 34 34 32 32
37 38 39 40 40 40 40 39 38 39 39 39 38 35 29 25 26 29 28 27 29 32 33 33 33 33 33 31 31 31 29 27 28 28 31 32 31 31 31 32 33 34 32
37 38 39 39 39 39 39 38 38 37 36 32 28 27 26 26 26 27 28 26 26 27 27 25 27 25 27 27 29 27 26 25 26 26 27 27 27 29 31 32 32 33 34
36 37 38 38 38 37 36 36 35 32 30 29 28 27 26 25 22 19 17 19 24 25 22 22 23 23 25 26 24 22 23 23 24 24 26 26 27 27 28 30 32 33 34
36 37 37 36 34 33 32 30 29 29 26 26 24 24 21 18 17 16 18 21 23 22 22 24 22 26 25 23 20 20 21 23 22 25 27 29 29 28 28 28 29 31 33
36 35 35 33 31 30 29 28 27 26 24 22 21 24 24 21 15 14 20 23 22 22 22 20 21 22 20 18 18 19 19 20 21 23 24 27 28 27 26 29 30 32 33

GFSMW_sfc_dewp_051.txt.gz
Dewpoint
51 52 52 51 51 52 51 52 52 51 52 53 50 48 48 52 53 55 54 57 59 60 60 60 59 59 56 55 54 53 49 44 42 39 40 41 42 41 40 40 38 36 35
50 50 51 51 51 52 51 50 50 50 50 55 45 45 50 53 54 54 54 56 60 60 60 60 58 58 57 56 54 51 47 45 42 39 44 41 43 44 42 41 39 37 37
49 49 50 50 49 49 49 48 47 48 50 55 53 50 53 53 51 53 53 56 60 60 60 59 59 58 58 56 53 51 47 45 45 44 44 40 40 39 42 42 41 38 38
49 49 50 50 49 48 50 50 47 47 50 54 54 51 53 52 50 50 53 59 60 60 60 60 59 58 58 56 54 53 51 48 44 46 44 42 42 37 35 40 41 41 39
49 49 47 49 50 50 49 51 50 50 52 54 55 56 56 53 51 50 54 58 60 60 60 60 59 58 58 57 55 53 51 50 48 45 45 43 44 43 39 36 37 40 40
50 50 49 49 49 51 52 52 52 53 53 54 55 57 58 57 53 53 54 59 60 60 61 61 59 59 58 57 55 52 51 49 47 45 44 43 42 41 41 40 37 36 35
47 50 50 50 50 50 52 53 53 53 53 53 54 57 58 57 55 56 56 57 58 58 58 59 58 58 56 55 53 50 48 48 47 47 45 45 44 42 41 37 36 35 34
45 49 50 51 51 51 52 53 53 53 53 54 56 57 57 58 58 58 58 58 58 58 58 58 57 55 54 51 50 49 48 48 47 44 45 46 43 42 40 38 37 34 33
41 45 48 49 49 51 51 53 53 52 54 55 57 57 57 57 58 58 59 58 56 56 56 57 55 54 51 49 49 47 47 46 44 44 45 43 42 43 43 42 39 36 31
40 42 44 46 47 50 51 53 54 54 54 55 58 57 57 58 59 59 58 58 57 56 55 55 53 50 48 47 47 46 45 44 44 44 42 44 44 44 44 43 39 36 34
35 41 43 45 45 46 50 54 55 57 56 55 56 58 57 58 59 59 58 58 56 54 54 52 50 48 47 47 45 44 43 44 43 44 43 43 44 44 43 40 37 35 34
37 38 41 44 46 47 53 55 56 59 58 57 58 59 59 59 59 58 58 58 56 53 51 50 49 47 46 45 44 42 41 42 43 43 43 42 41 41 40 39 38 36 36
34 40 43 44 47 49 52 54 56 56 56 58 60 60 60 59 58 57 56 55 53 51 49 49 47 46 46 44 42 40 42 44 43 42 42 42 41 40 41 41 40 39 36
29 42 44 45 48 50 54 56 57 58 58 59 60 58 57 56 55 54 53 52 52 49 48 47 46 46 44 42 42 43 43 43 42 42 41 42 41 41 40 39 38 37 35
29 33 44 47 50 53 56 56 57 59 60 59 57 55 54 54 53 51 51 49 48 47 46 45 43 43 42 42 43 42 42 40 40 40 41 41 41 40 39 39 38 35 34
26 27 36 50 53 54 56 55 55 56 56 56 55 54 54 53 52 51 49 48 45 44 43 42 42 42 41 40 39 40 39 39 39 39 40 40 40 39 38 38 37 36 33
31 36 42 51 53 55 55 54 54 54 53 53 53 53 51 50 50 49 46 43 41 40 40 39 39 39 39 38 38 37 39 39 39 39 38 38 38 35 33 33 33 32 33
40 44 52 54 54 54 53 52 50 49 48 46 47 46 44 42 42 41 41 41 40 39 39 39 39 39 38 38 38 37 38 36 36 36 36 33 31 32 32 31 30 31 31
45 49 52 52 52 51 51 49 47 45 44 44 44 42 41 40 40 40 40 40 40 40 39 40 39 39 38 37 37 36 35 33 31 32 31 30 29 32 30 27 24 22 22
45 47 48 48 49 47 47 46 44 44 43 42 42 41 41 41 41 40 41 40 41 40 40 39 39 36 33 34 34 33 29 27 26 27 28 29 28 29 28 24 22 22 22
44 45 45 45 44 44 44 42 42 42 42 42 42 42 42 41 41 41 40 40 39 37 34 33 33 31 30 29 29 28 24 25 26 24 24 24 26 25 24 26 26 25 26
42 42 42 42 42 42 42 41 40 41 41 41 41 41 40 40 40 40 37 35 34 31 30 30 30 28 27 27 26 25 24 23 23 23 24 24 23 23 26 27 28 29 29
40 41 41 41 42 41 40 39 40 40 40 40 40 40 36 35 32 29 31 32 31 28 27 27 28 26 26 23 22 21 21 22 22 23 21 22 23 25 25 25 24 24 24
39 40 41 40 40 40 40 40 40 40 39 33 29 30 29 29 26 27 28 26 25 25 25 25 25 25 22 21 21 20 21 22 21 22 21 21 23 23 22 21 21 22 21
39 40 40 40 39 39 39 39 39 34 29 29 29 28 27 23 23 25 22 21 24 26 24 24 25 23 21 20 19 18 20 20 21 20 18 20 20 19 19 18 18 18 18
40 40 40 39 37 37 36 36 34 31 30 26 26 26 26 23 20 22 21 25 23 24 23 24 24 23 20 17 17 17 18 18 21 19 17 12 10 15 16 16 15 15 15

GFSMW_sfc_dewp_054.txt.gz
Dewpoint
52 51 51 51 53 53 53 52 53 53 54 53 51 51 50 51 52 54 54 54 57 57 57 59 58 58 57 55 54 53 51 46 44 39 39 40 41 41 40 38 38 39 44
52 51 51 51 52 52 52 52 51 52 53 53 51 49 48 50 53 53 53 54 57 58 59 59 58 58 57 55 54 52 48 47 42 40 42 41 43 43 42 40 39 37 36
51 51 51 50 51 51 51 52 51 50 51 53 50 47 48 53 52 53 53 54 56 58 59 59 58 57 56 55 54 52 49 47 45 44 43 42 41 39 40 42 41 39 38
50 51 51 50 50 51 51 51 51 50 50 52 52 45 44 45 49 53 53 53 56 58 59 59 59 57 58 56 55 54 51 51 47 45 45 44 43 38 36 40 41 41 39
50 49 50 50 50 51 50 49 49 49 49 49 54 50 48 49 52 53 51 53 58 59 59 59 58 58 58 58 56 55 52 51 49 46 45 45 44 42 39 38 37 40 41
49 49 50 49 50 49 49 48 47 48 48 48 52 53 51 52 53 53 52 53 57 59 59 60 59 58 58 58 58 56 54 51 48 48 48 47 45 45 44 40 39 37 36
49 49 49 49 49 48 48 49 47 46 47 47 50 52 52 53 55 55 53 53 56 57 58 59 58 58 58 58 57 54 53 49 48 48 48 48 47 46 44 40 37 36 36
50 49 48 48 49 49 49 49 49 47 47 48 51 52 52 54 57 57 55 54 56 57 57 58 57 57 56 55 54 51 49 49 48 48 47 47 47 44 43 40 39 36 35
46 50 49 48 48 49 50 50 50 50 50 51 53 53 54 54 57 58 57 56 56 57 57 57 56 55 54 53 50 48 47 48 47 47 46 45 44 43 44 43 41 39 36
44 47 50 51 50 50 51 53 52 52 52 53 54 54 54 56 57 58 57 57 57 56 55 55 55 53 51 49 48 47 47 46 45 45 45 44 44 44 44 44 42 40 37
42 45 48 50 51 52 52 53 54 54 54 55 54 55 56 57 58 58 58 58 58 57 55 55 53 51 48 47 47 46 45 44 45 44 44 44 44 43 43 42 40 38 36
40 41 44 48 50 51 52 53 54 54 55 55 55 56 58 58 59 58 58 59 57 56 55 53 51 49 47 46 45 44 44 44 43 43 44 44 44 42 41 40 39 37 37
37 40 42 43 45 47 49 52 54 55 56 57 57 58 58 58 59 59 58 57 56 54 53 52 50 48 47 45 44 43 43 43 43 43 43 43 42 40 40 39 39 39 39
37 39 43 45 46 46 47 49 55 56 56 57 57 58 58 58 59 58 57 56 55 53 52 51 49 47 45 44 42 42 43 43 43 43 42 42 41 40 39 38 36 37 35
29 40 42 45 49 52 50 49 53 56 56 56 55 57 58 58 58 57 55 53 53 51 49 47 46 45 44 43 42 42 42 42 42 42 41 41 41 41 39 38 36 34 33
29 36 43 46 52 55 54 54 55 56 57 56 58 57 56 55 54 53 51 50 48 48 45 44 44 43 43 40 40 41 41 41 40 38 39 40 40 39 36 34 33 32 29
29 30 41 49 54 55 56 56 56 57 57 57 56 55 54 52 51 50 48 46 45 45 43 43 43 42 42 39 39 38 39 39 38 38 39 37 34 33 32 32 31 31 32
28 30 44 52 55 55 54 54 54 54 54 54 53 53 52 51 49 46 44 42 43 41 41 40 40 40 39 38 37 36 37 36 36 34 33 31 29 31 29 27 24 22 23
38 47 52 53 54 54 52 51 50 49 49 48 49 48 46 45 45 44 43 40 39 39 38 38 38 37 37 37 36 37 35 32 31 29 29 28 27 27 27 25 23 22 24
48 51 51 51 51 49 49 47 46 46 45 45 44 44 44 43 42 41 40 39 39 38 39 39 38 37 37 36 36 33 30 26 25 26 25 26 25 26 24 24 24 24 25
48 49 51 51 49 48 46 45 44 44 43 42 41 41 41 40 40 40 40 40 40 39 35 33 31 30 30 30 29 27 24 25 25 23 23 24 23 22 24 27 26 26 24
46 47 47 46 45 45 44 43 42 42 42 42 42 41 41 40 40 40 39 39 36 33 30 28 27 26 26 27 26 25 24 22 23 21 23 23 22 24 26 25 22 22 23
43 44 44 42 42 42 43 41 41 41 41 41 41 40 40 40 39 38 35 33 32 30 29 27 25 24 23 23 22 22 21 21 22 23 21 21 22 24 24 20 19 22 21
41 41 42 41 40 40 40 40 40 41 40 40 38 37 35 30 29 29 30 29 28 28 28 27 25 23 22 21 21 20 22 22 21 22 22 22 23 23 22 21 20 20 19
40 41 41 40 39 40 40 40 40 38 35 32 29 27 27 27 24 21 23 25 26 27 26 26 26 23 22 20 19 19 21 22 22 21 20 20 18 16 18 18 17 16 16
41 41 40 39 39 39 39 37 34 32 30 27 26 25 25 24 18 18 21 26 26 27 27 26 24 24 22 20 18 17 17 19 20 20 17 14 12 14 15 15 14 14 13

GFSMW_sfc_dewp_057.txt.gz
Dewpoint
51 51 52 53 53 52 53 53 54 55 55 51 53 52 51 51 52 54 54 56 57 57 58 58 58 58 56 55 54 52 51 49 46 41 39 40 40 40 39 38 41 39 44
50 51 50 51 53 52 52 53 53 53 54 51 49 50 49 50 52 52 53 54 55 57 57 58 58 58 56 54 54 52 50 49 44 41 41 37 40 43 42 40 38 38 40
50 50 49 50 52 52 52 52 52 52 52 52 51 49 48 49 51 51 53 53 54 56 57 57 57 56 56 55 54 53 50 50 45 44 44 42 41 40 41 42 41 39 38
51 51 50 49 50 51 52 51 51 51 51 53 52 49 46 45 48 51 52 53 54 55 57 58 57 57 57 55 55 54 52 51 48 47 47 45 45 41 41 42 42 43 40
51 51 51 50 50 51 51 52 51 50 50 51 52 50 47 46 47 51 52 52 54 55 57 58 57 57 57 57 56 54 52 51 51 50 48 47 45 46 45 39 40 42 42
50 50 51 51 50 51 51 51 51 51 49 50 52 52 48 47 49 51 52 53 53 55 57 58 58 58 57 56 56 56 54 53 53 50 49 49 48 46 44 42 41 39 39
49 49 50 50 49 50 51 50 50 50 50 49 49 52 52 49 49 50 52 53 52 54 56 57 57 58 58 58 58 56 56 54 52 49 49 49 48 47 46 44 41 37 37
48 49 49 49 49 49 50 49 49 49 49 49 48 49 52 52 51 50 53 54 53 54 56 57 58 58 56 56 55 55 54 52 50 49 48 49 48 46 44 41 40 37 36
48 49 49 49 48 49 49 49 49 48 48 49 49 48 49 51 51 52 53 56 55 55 55 57 57 55 55 55 53 52 50 49 49 49 48 47 46 44 44 43 41 40 35
46 49 49 50 49 49 49 49 49 47 47 47 47 47 48 51 50 52 54 57 57 57 56 55 55 55 54 54 52 48 48 48 48 47 46 45 45 45 45 44 43 42 40
44 47 49 50 49 50 51 51 50 49 49 48 47 48 49 51 53 53 55 57 57 57 57 56 55 54 53 50 48 47 47 46 45 45 45 44 44 44 44 44 42 41 38
42 44 47 50 49 49 50 51 53 52 52 50 50 51 52 53 54 55 57 58 57 57 57 57 55 53 52 51 49 47 46 45 45 45 44 44 44 43 42 41 40 39 38
38 42 45 47 50 50 50 51 52 53 53 54 53 54 55 55 55 56 58 58 58 58 56 55 54 52 51 49 49 46 46 45 44 44 43 43 43 41 40 40 39 39 38
35 39 42 45 49 50 51 52 52 53 54 54 54 55 56 56 56 57 58 58 58 56 54 54 52 50 49 49 47 46 44 44 44 44 43 43 42 41 40 39 38 36 33
32 38 40 42 44 47 49 51 52 54 54 54 54 54 56 57 57 58 58 58 56 55 53 52 50 49 47 46 44 44 43 43 42 43 42 42 42 41 40 38 35 31 30
29 33 40 43 46 45 46 47 49 53 54 54 55 56 57 57 57 58 56 55 53 52 50 49 47 47 45 40 40 42 43 42 42 41 40 40 40 35 34 34 33 31 27
29 30 39 43 46 48 50 49 49 53 56 55 56 56 57 57 56 53 51 51 50 49 46 46 45 45 44 39 40 39 42 41 40 39 39 36 32 33 31 30 27 27 27
30 30 33 44 47 53 54 53 54 55 55 55 56 56 55 53 52 51 49 46 46 45 45 45 45 44 42 38 38 37 39 38 37 36 35 31 31 29 26 23 21 21 22
31 31 34 49 53 53 53 53 52 55 55 54 54 53 52 51 49 47 46 45 44 44 43 43 42 40 40 37 36 36 35 32 30 29 28 26 25 26 24 23 22 24 25
36 46 51 52 52 51 52 51 49 51 51 51 50 50 49 48 46 45 43 42 42 40 39 38 38 37 37 36 36 34 31 27 26 24 23 25 24 23 23 25 25 24 23
48 51 51 52 51 50 50 48 47 47 48 47 46 46 46 45 44 42 40 40 40 37 33 31 31 32 33 34 34 31 28 26 24 22 22 22 22 22 26 26 24 22 22
49 50 50 48 48 48 48 46 45 43 42 42 42 42 42 41 40 40 39 39 35 32 30 28 27 27 27 28 28 26 25 24 23 22 23 23 22 24 25 22 20 20 21
47 49 48 45 45 46 46 45 42 42 42 41 41 41 40 40 39 38 36 34 33 30 29 27 25 23 23 24 24 23 22 21 22 22 21 21 23 23 22 18 19 20 19
44 44 45 44 43 43 43 42 42 42 41 40 40 38 34 32 32 32 33 32 32 30 28 26 23 21 21 21 21 21 22 22 21 21 22 22 23 22 21 20 18 18 17
43 44 44 42 40 41 41 41 41 41 39 36 32 30 28 26 26 26 27 27 28 30 27 26 24 22 21 21 21 22 22 23 23 23 22 18 18 17 17 17 16 15 15
42 41 40 40 40 40 38 38 38 36 33 29 29 28 26 24 23 22 23 28 29 29 28 27 26 24 22 21 21 23 22 20 22 20 17 15 14 15 14 13 13 13 12

GFSMW_sfc_dewp_060.txt.gz
Dewpoint
50 52 52 54 54 55 55 55 55 55 55 54 54 55 54 53 54 55 57 58 58 58 58 58 58 58 57 56 55 53 51 50 48 44 42 42 41 41 40 39 41 44 45
50 51 50 52 52 53 53 54 54 54 55 56 54 54 53 51 52 53 54 56 57 58 58 58 58 58 57 55 54 52 51 51 47 45 42 40 41 43 42 41 39 41 42
49 49 49 50 52 52 52 53 53 54 54 54 53 49 49 53 50 51 52 53 54 56 57 57 58 57 57 55 54 53 51 50 48 45 47 42 41 41 43 43 41 41 40
50 49 48 48 51 52 52 52 52 52 52 53 52 49 48 50 50 50 51 52 54 54 55 56 56 56 56 55 54 54 52 51 48 46 47 47 46 43 41 43 43 43 40
50 50 50 49 50 52 52 52 52 52 51 51 50 50 48 48 48 51 51 52 54 54 55 56 56 56 56 56 55 53 52 51 50 47 47 47 47 47 46 44 43 43 44
51 51 51 50 50 51 51 51 51 50 51 52 51 50 49 48 47 47 50 51 52 53 54 56 55 56 56 56 56 55 55 54 53 51 50 49 48 47 46 44 43 41 41
50 50 50 49 49 50 50 51 51 50 50 50 51 52 50 49 48 47 49 50 51 52 53 54 55 55 56 57 57 56 56 55 54 53 53 52 50 50 48 46 44 42 40
49 50 50 50 49 50 50 50 51 51 51 49 49 51 52 51 49 49 50 51 52 52 53 54 55 55 56 57 57 57 56 56 54 53 52 51 50 49 47 46 42 39 37
48 49 49 50 49 49 50 50 50 50 50 50 49 49 50 52 52 51 50 51 52 53 53 54 55 55 55 55 56 56 54 53 52 50 49 50 48 47 45 43 42 42 38
47 48 49 49 50 49 50 50 50 49 49 50 50 49 48 50 51 52 51 51 52 54 54 54 54 55 54 54 53 52 50 51 48 49 49 47 46 45 45 44 43 42 41
45 48 49 50 49 49 49 50 50 49 48 49 49 49 49 49 50 50 51 52 53 56 56 56 56 56 55 55 54 52 50 50 48 47 47 46 45 45 45 44 43 42 41
42 45 48 49 50 49 49 49 49 49 49 49 48 49 50 50 49 50 50 52 54 56 56 56 57 57 55 52 52 50 50 49 47 47 46 45 45 44 44 42 41 40 39
39 43 46 49 50 50 49 50 50 49 50 50 49 48 48 49 49 50 51 53 54 56 56 57 56 56 54 53 52 51 50 48 47 46 45 45 44 43 42 41 39 40 38
31 39 43 47 50 50 50 50 51 51 50 50 50 49 49 50 50 51 53 54 56 55 56 57 56 55 53 52 51 49 48 47 47 45 45 44 44 42 40 39 38 37 36
27 35 41 44 47 50 50 50 50 51 52 52 51 51 52 52 53 54 55 56 56 56 56 57 54 52 50 49 48 48 47 45 44 44 44 44 43 41 40 39 37 34 32
29 29 37 41 45 48 49 50 51 51 52 52 52 52 53 53 54 55 56 56 56 57 57 55 53 50 49 43 43 45 45 44 43 43 42 42 40 38 36 35 33 32 29
30 29 32 39 41 44 48 49 51 52 53 53 53 53 53 54 55 56 56 56 56 54 53 51 50 48 47 41 41 40 43 43 42 41 40 36 34 34 32 31 28 25 25
31 31 30 35 42 45 47 47 48 50 53 53 54 54 54 55 56 55 55 53 51 51 49 49 47 46 43 39 39 39 41 40 39 39 35 32 30 30 27 22 20 21 23
33 33 32 32 38 48 52 51 51 52 53 53 53 54 56 55 52 51 48 47 47 47 45 44 44 42 40 39 38 38 36 34 31 30 30 29 27 27 25 21 22 24 25
33 32 36 41 47 50 52 52 54 52 53 52 54 54 53 51 49 47 46 46 45 42 41 40 41 39 38 37 36 35 32 29 27 25 25 27 24 24 26 26 25 22 22
42 47 49 49 50 51 52 50 51 53 51 50 49 49 49 48 46 44 43 42 40 36 34 33 33 34 36 35 35 33 30 28 25 22 21 22 23 25 27 26 23 21 19
45 49 49 48 48 49 50 47 47 46 46 46 45 45 44 42 41 41 39 37 35 32 31 30 29 28 29 31 31 30 28 27 24 21 21 23 25 26 24 22 21 20 19
46 48 48 47 47 48 48 46 42 43 43 43 42 41 41 41 40 39 36 35 34 32 30 28 26 24 25 25 25 25 24 23 22 23 23 24 26 24 21 20 20 19 18
45 46 46 45 43 44 44 43 43 43 42 41 39 37 36 35 35 35 35 33 32 31 29 27 24 23 21 22 23 22 22 22 22 23 23 24 23 22 21 19 18 16 16
43 44 43 41 41 42 43 44 43 41 39 36 34 32 31 30 29 29 29 30 31 32 30 27 25 23 22 20 21 22 22 24 24 23 21 19 18 17 18 16 15 14 13
41 39 38 37 36 35 35 38 39 37 34 32 30 29 29 28 28 27 27 30 30 29 28 27 25 25 25 25 25 24 24 24 24 20 17 15 15 15 14 14 13 13 12